Time,TemperatureF,DewpointF,PressureIn,WindDirection,WindDirectionDegrees,WindSpeedMPH,WindSpeedGustMPH,Humidity,HourlyPrecipIn,Conditions,Clouds,dailyrainin,SoftwareType,DateUTC
2013-02-10 00:00:00,53.4,34.2,29.59,SSW,202,4.6,4.6,48,0.00,CLR,,0.00,WeatherDisplay:10.37,2013-02-09 22:00:00,
2013-02-10 00:01:00,53.4,34.2,29.62,SW,225,4.7,4.7,48,0.00,CLR,,0.00,WeatherDisplay:10.37,2013-02-09 22:01:00,
2013-02-10 00:04:00,53.4,34.2,29.62,SW,225,4.6,4.6,48,0.00,CLR,,0.00,WeatherDisplay:10.37,2013-02-09 22:04:00,
2013-02-10 00:05:00,53.4,34.2,29.62,SW,225,5.8,5.8,48,0.00,CLR,,0.00,WeatherDisplay:10.37,2013-02-09 22:05:00,
2013-02-10 00:06:00,53.4,34.2,29.62,SW,225,3.5,3.5,48,0.00,CLR,,0.00,WeatherDisplay:10.37,2013-02-09 22:06:00,
2013-02-10 00:09:00,53.4,34.2,29.62,SSW,202,4.6,4.6,48,0.00,CLR,,0.00,WeatherDisplay:10.37,2013-02-09 22:09:00,
2013-02-10 00:10:00,53.4,34.2,29.62,SW,225,4.7,4.7,48,0.00,CLR,,0.00,WeatherDisplay:10.37,2013-02-09 22:10:00,
2013-02-10 00:11:00,53.4,34.2,29.62,SSW,202,3.5,3.6,48,0.00,CLR,,0.00,WeatherDisplay:10.37,2013-02-09 22:11:00,
2013-02-10 00:14:00,53.4,34.7,29.62,SSW,202,4.6,4.6,49,0.00,CLR,,0.00,WeatherDisplay:10.37,2013-02-09 22:14:00,
2013-02-10 00:15:00,53.2,34.6,29.62,South,180,3.5,3.5,49,0.00,CLR,,0.00,WeatherDisplay:10.37,2013-02-09 22:15:00,
2013-02-10 00:16:00,53.2,34.6,29.62,South,180,3.5,3.5,49,0.00,CLR,,0.00,WeatherDisplay:10.37,2013-02-09 22:16:00,
2013-02-10 00:19:00,53.2,34.6,29.62,SSW,202,2.3,2.3,49,0.00,CLR,,0.00,WeatherDisplay:10.37,2013-02-09 22:19:00,
2013-02-10 00:20:00,53.1,34.4,29.62,SSW,202,2.3,2.3,49,0.00,CLR,,0.00,WeatherDisplay:10.37,2013-02-09 22:20:00,
2013-02-10 00:21:00,53.1,34.4,29.62,WSW,248,2.9,2.9,49,0.00,CLR,,0.00,WeatherDisplay:10.37,2013-02-09 22:21:00,
2013-02-10 00:24:00,53.2,35.1,29.62,SSW,202,4.6,4.6,50,0.00,CLR,,0.00,WeatherDisplay:10.37,2013-02-09 22:24:00,
2013-02-10 00:26:00,53.2,35.1,29.62,SSW,202,4.6,4.6,50,0.00,CLR,,0.00,WeatherDisplay:10.37,2013-02-09 22:26:00,
2013-02-10 00:29:00,53.2,35.1,29.62,SSW,202,5.8,5.8,50,0.00,CLR,,0.00,WeatherDisplay:10.37,2013-02-09 22:29:00,
2013-02-10 00:31:00,53.2,35.1,29.62,South,180,4.6,4.6,50,0.00,CLR,,0.00,WeatherDisplay:10.37,2013-02-09 22:31:00,
2013-02-10 00:34:00,53.2,35.1,29.62,West,270,2.3,2.9,50,0.00,CLR,,0.00,WeatherDisplay:10.37,2013-02-09 22:34:00,
2013-02-10 00:36:00,53.2,35.1,29.62,SSW,202,6.9,6.9,50,0.00,CLR,,0.00,WeatherDisplay:10.37,2013-02-09 22:36:00,
2013-02-10 00:40:00,53.2,35.6,29.62,SSW,202,6.9,6.9,51,0.00,CLR,,0.00,WeatherDisplay:10.37,2013-02-09 22:40:00,
2013-02-10 00:41:00,53.2,35.6,29.62,WSW,248,3.5,3.5,51,0.00,CLR,,0.00,WeatherDisplay:10.37,2013-02-09 22:41:00,
2013-02-10 00:45:00,53.2,35.6,29.62,SW,225,4.6,0.0,51,0.00,CLR,,0.00,WeatherDisplay:10.37,2013-02-09 22:45:00,
2013-02-10 00:46:00,53.2,35.6,29.62,SW,225,4.6,4.6,51,0.00,CLR,,0.00,WeatherDisplay:10.37,2013-02-09 22:46:00,
2013-02-10 00:50:00,53.1,35.4,29.62,SW,225,2.3,2.3,51,0.00,CLR,,0.00,WeatherDisplay:10.37,2013-02-09 22:50:00,
2013-02-10 00:51:00,53.1,35.4,29.62,SSW,202,2.3,2.3,51,0.00,CLR,,0.00,WeatherDisplay:10.37,2013-02-09 22:51:00,
2013-02-10 00:52:00,53.1,35.4,29.62,SSW,202,2.9,2.9,51,0.00,CLR,,0.00,WeatherDisplay:10.37,2013-02-09 22:52:00,
2013-02-10 00:55:00,53.1,35.4,29.62,SW,225,1.4,0.0,51,0.00,CLR,,0.00,WeatherDisplay:10.37,2013-02-09 22:55:00,
2013-02-10 00:56:00,53.1,35.4,29.62,SW,225,2.3,2.3,51,0.00,CLR,,0.00,WeatherDisplay:10.37,2013-02-09 22:56:00,
2013-02-10 00:57:00,52.9,35.2,29.62,SW,225,2.6,2.6,51,0.00,CLR,,0.00,WeatherDisplay:10.37,2013-02-09 22:57:00,
2013-02-10 01:00:00,52.9,35.2,29.62,WSW,248,1.1,0.0,51,0.00,CLR,,0.00,WeatherDisplay:10.37,2013-02-09 23:00:00,
2013-02-10 01:01:00,52.9,35.2,29.62,WSW,248,2.0,2.6,51,0.00,CLR,,0.00,WeatherDisplay:10.37,2013-02-09 23:01:00,
2013-02-10 01:02:00,52.9,35.2,29.62,WSW,248,2.0,2.6,51,0.00,CLR,,0.00,WeatherDisplay:10.37,2013-02-09 23:02:00,
2013-02-10 01:05:00,52.7,35.1,29.62,SSW,202,2.3,2.3,51,0.00,CLR,,0.00,WeatherDisplay:10.37,2013-02-09 23:05:00,
2013-02-10 01:07:00,52.7,35.1,29.62,SW,225,2.3,2.3,51,0.00,CLR,,0.00,WeatherDisplay:10.37,2013-02-09 23:07:00,
2013-02-10 01:10:00,52.5,34.9,29.62,WSW,248,3.3,3.3,51,0.00,CLR,,0.00,WeatherDisplay:10.37,2013-02-09 23:10:00,
2013-02-10 01:12:00,52.5,34.9,29.62,SSW,202,3.8,3.8,51,0.00,CLR,,0.00,WeatherDisplay:10.37,2013-02-09 23:12:00,
2013-02-10 01:15:00,52.5,35.4,29.62,WSW,248,4.0,4.0,52,0.00,CLR,,0.00,WeatherDisplay:10.37,2013-02-09 23:15:00,
2013-02-10 01:17:00,52.3,35.2,29.62,WSW,248,4.6,4.6,52,0.00,CLR,,0.00,WeatherDisplay:10.37,2013-02-09 23:17:00,
2013-02-10 01:20:00,52.3,35.2,29.62,WSW,248,3.8,3.8,52,0.00,CLR,,0.00,WeatherDisplay:10.37,2013-02-09 23:20:00,
2013-02-10 01:22:00,52.3,35.2,29.62,SSW,202,4.6,4.6,52,0.00,CLR,,0.00,WeatherDisplay:10.37,2013-02-09 23:22:00,
2013-02-10 01:25:00,52.2,35.1,29.62,WSW,248,2.3,2.3,52,0.00,CLR,,0.00,WeatherDisplay:10.37,2013-02-09 23:25:00,
2013-02-10 01:27:00,52.2,35.1,29.62,WSW,248,2.3,2.3,52,0.00,CLR,,0.00,WeatherDisplay:10.37,2013-02-09 23:27:00,
2013-02-10 01:30:00,52.0,35.4,29.62,SW,225,4.6,4.6,53,0.00,CLR,,0.00,WeatherDisplay:10.37,2013-02-09 23:30:00,
2013-02-10 01:32:00,52.0,35.4,29.62,SSW,202,3.5,3.5,53,0.00,CLR,,0.00,WeatherDisplay:10.37,2013-02-09 23:32:00,
2013-02-10 01:33:00,52.0,35.8,29.62,SSW,202,3.5,3.5,54,0.00,CLR,,0.00,WeatherDisplay:10.37,2013-02-09 23:33:00,
2013-02-10 01:35:00,52.0,35.8,29.62,WSW,248,4.6,4.6,54,0.00,CLR,,0.00,WeatherDisplay:10.37,2013-02-09 23:35:00,
2013-02-10 01:37:00,52.0,35.8,29.62,WSW,248,3.5,3.5,54,0.00,CLR,,0.00,WeatherDisplay:10.37,2013-02-09 23:37:00,
2013-02-10 01:38:00,51.8,35.7,29.62,WSW,248,3.5,0.0,54,0.00,CLR,,0.00,WeatherDisplay:10.37,2013-02-09 23:38:00,
2013-02-10 01:40:00,51.8,36.1,29.62,WSW,248,4.6,4.6,55,0.00,CLR,,0.00,WeatherDisplay:10.37,2013-02-09 23:40:00,
2013-02-10 01:42:00,51.8,36.1,29.62,WSW,248,2.4,2.4,55,0.00,CLR,,0.00,WeatherDisplay:10.37,2013-02-09 23:42:00,
2013-02-10 01:43:00,51.8,36.1,29.62,WSW,248,3.5,3.5,55,0.00,CLR,,0.00,WeatherDisplay:10.37,2013-02-09 23:43:00,
2013-02-10 01:45:00,51.6,36.0,29.62,WSW,248,1.1,0.0,55,0.00,CLR,,0.00,WeatherDisplay:10.37,2013-02-09 23:45:00,
2013-02-10 01:47:00,51.6,36.0,29.62,WSW,248,5.8,5.8,55,0.00,CLR,,0.00,WeatherDisplay:10.37,2013-02-09 23:47:00,
2013-02-10 01:48:00,51.6,36.4,29.62,WSW,248,5.8,5.8,56,0.00,CLR,,0.00,WeatherDisplay:10.37,2013-02-09 23:48:00,
2013-02-10 01:50:00,51.6,36.4,29.62,WSW,248,4.6,4.6,56,0.00,CLR,,0.00,WeatherDisplay:10.37,2013-02-09 23:50:00,
2013-02-10 01:52:00,51.6,36.9,29.62,WSW,248,4.6,4.6,57,0.00,CLR,,0.00,WeatherDisplay:10.37,2013-02-09 23:52:00,
2013-02-10 01:53:00,51.6,36.9,29.62,WSW,248,3.5,3.5,57,0.00,CLR,,0.00,WeatherDisplay:10.37,2013-02-09 23:53:00,
2013-02-10 01:56:00,51.6,36.9,29.62,SW,225,4.6,4.6,57,0.00,CLR,,0.00,WeatherDisplay:10.37,2013-02-09 23:56:00,
2013-02-10 01:57:00,51.6,36.4,29.62,WSW,248,3.5,3.5,56,0.00,CLR,,0.00,WeatherDisplay:10.37,2013-02-09 23:57:00,
2013-02-10 01:58:00,51.6,36.4,29.62,SW,225,5.6,5.6,56,0.00,CLR,,0.00,WeatherDisplay:10.37,2013-02-09 23:58:00,
2013-02-10 02:01:00,51.6,36.9,29.62,WSW,248,5.8,5.8,57,0.00,CLR,,0.00,WeatherDisplay:10.37,2013-02-10 00:01:00,
2013-02-10 02:02:00,51.6,36.9,29.62,WSW,248,3.5,3.5,57,0.00,CLR,,0.00,WeatherDisplay:10.37,2013-02-10 00:02:00,
2013-02-10 02:03:00,51.6,36.9,29.62,SW,225,3.5,3.5,57,0.00,CLR,,0.00,WeatherDisplay:10.37,2013-02-10 00:03:00,
2013-02-10 02:06:00,51.4,36.3,29.62,SW,225,2.4,2.4,56,0.00,CLR,,0.00,WeatherDisplay:10.37,2013-02-10 00:06:00,
2013-02-10 02:07:00,51.4,36.3,29.62,SW,225,2.3,2.3,56,0.00,CLR,,0.00,WeatherDisplay:10.37,2013-02-10 00:07:00,
2013-02-10 02:08:00,51.4,36.3,29.62,SW,225,2.3,2.3,56,0.00,CLR,,0.00,WeatherDisplay:10.37,2013-02-10 00:08:00,
2013-02-10 02:11:00,51.3,36.1,29.62,SW,225,1.4,1.4,56,0.00,CLR,,0.00,WeatherDisplay:10.37,2013-02-10 00:11:00,
2013-02-10 02:12:00,51.3,36.1,29.62,SW,225,1.6,2.0,56,0.00,CLR,,0.00,WeatherDisplay:10.37,2013-02-10 00:12:00,
2013-02-10 02:13:00,51.3,36.1,29.62,SW,225,2.3,2.3,56,0.00,CLR,,0.00,WeatherDisplay:10.37,2013-02-10 00:13:00,
2013-02-10 02:14:00,51.3,36.1,29.62,SW,225,2.3,2.3,56,0.00,CLR,,0.00,WeatherDisplay:10.37,2013-02-10 00:14:00,
2013-02-10 02:16:00,51.3,36.1,29.65,WSW,248,3.5,3.5,56,0.00,CLR,,0.00,WeatherDisplay:10.37,2013-02-10 00:16:00,
2013-02-10 02:17:00,51.3,36.1,29.65,WSW,248,3.5,3.5,56,0.00,CLR,,0.00,WeatherDisplay:10.37,2013-02-10 00:17:00,
2013-02-10 02:18:00,51.1,36.4,29.65,WSW,248,3.5,3.5,57,0.00,CLR,,0.00,WeatherDisplay:10.37,2013-02-10 00:18:00,
2013-02-10 02:19:00,51.1,36.4,29.65,WSW,248,3.5,3.5,57,0.00,CLR,,0.00,WeatherDisplay:10.37,2013-02-10 00:19:00,
2013-02-10 02:21:00,50.9,35.7,29.65,WSW,248,1.4,1.4,56,0.00,CLR,,0.00,WeatherDisplay:10.37,2013-02-10 00:21:00,
2013-02-10 02:22:00,50.9,35.7,29.65,WSW,248,2.3,2.3,56,0.00,CLR,,0.00,WeatherDisplay:10.37,2013-02-10 00:22:00,
2013-02-10 02:23:00,50.9,35.7,29.65,WSW,248,2.3,2.3,56,0.00,CLR,,0.00,WeatherDisplay:10.37,2013-02-10 00:23:00,
2013-02-10 02:24:00,50.9,36.2,29.65,WSW,248,1.1,1.1,57,0.00,CLR,,0.00,WeatherDisplay:10.37,2013-02-10 00:24:00,
2013-02-10 02:26:00,50.7,35.6,29.65,WSW,248,0.0,0.0,56,0.00,CLR,,0.00,WeatherDisplay:10.37,2013-02-10 00:26:00,
2013-02-10 02:27:00,50.7,35.6,29.65,WSW,248,0.0,0.0,56,0.00,CLR,,0.00,WeatherDisplay:10.37,2013-02-10 00:27:00,
2013-02-10 02:28:00,50.5,35.9,29.65,WSW,248,1.4,1.4,57,0.00,CLR,,0.00,WeatherDisplay:10.37,2013-02-10 00:28:00,
2013-02-10 02:30:00,50.5,35.9,29.65,WSW,248,1.6,0.0,57,0.00,CLR,,0.00,WeatherDisplay:10.37,2013-02-10 00:30:00,
2013-02-10 02:32:00,50.5,35.9,29.62,WSW,248,0.0,0.0,57,0.00,CLR,,0.00,WeatherDisplay:10.37,2013-02-10 00:32:00,
2013-02-10 02:33:00,50.4,35.7,29.62,WSW,248,0.0,0.0,57,0.00,CLR,,0.00,WeatherDisplay:10.37,2013-02-10 00:33:00,
2013-02-10 02:35:00,50.2,35.1,29.62,WSW,248,1.1,0.0,56,0.00,CLR,,0.00,WeatherDisplay:10.37,2013-02-10 00:35:00,
2013-02-10 02:37:00,50.2,35.5,29.62,WSW,248,0.0,0.0,57,0.00,CLR,,0.00,WeatherDisplay:10.37,2013-02-10 00:37:00,
2013-02-10 02:38:00,50.2,35.5,29.62,WSW,248,0.0,0.0,57,0.00,CLR,,0.00,WeatherDisplay:10.37,2013-02-10 00:38:00,
2013-02-10 02:40:00,50.2,35.5,29.62,WSW,248,1.6,0.0,57,0.00,CLR,,0.00,WeatherDisplay:10.37,2013-02-10 00:40:00,
2013-02-10 02:43:00,50.2,35.5,29.62,WSW,248,1.4,0.0,57,0.00,CLR,,0.00,WeatherDisplay:10.37,2013-02-10 00:43:00,
2013-02-10 02:45:00,50.2,36.0,29.62,WSW,248,3.5,3.5,58,0.00,CLR,,0.00,WeatherDisplay:10.37,2013-02-10 00:45:00,
2013-02-10 02:48:00,50.2,36.0,29.62,WSW,248,1.1,0.0,58,0.00,CLR,,0.00,WeatherDisplay:10.37,2013-02-10 00:48:00,
2013-02-10 02:50:00,50.4,36.1,29.62,WSW,248,3.5,3.5,58,0.00,CLR,,0.00,WeatherDisplay:10.37,2013-02-10 00:50:00,
2013-02-10 02:51:00,50.4,36.1,29.62,WSW,248,2.0,2.0,58,0.00,CLR,,0.00,WeatherDisplay:10.37,2013-02-10 00:51:00,
2013-02-10 02:53:00,50.4,36.1,29.62,SW,225,3.3,3.3,58,0.00,CLR,,0.00,WeatherDisplay:10.37,2013-02-10 00:53:00,
2013-02-10 02:55:00,50.5,36.7,29.62,WSW,248,3.5,3.5,59,0.00,CLR,,0.00,WeatherDisplay:10.37,2013-02-10 00:55:00,
2013-02-10 02:56:00,50.5,36.7,29.62,WSW,248,3.5,3.5,59,0.00,CLR,,0.00,WeatherDisplay:10.37,2013-02-10 00:56:00,
2013-02-10 02:58:00,50.5,36.7,29.62,SSW,202,2.3,2.3,59,0.00,CLR,,0.00,WeatherDisplay:10.37,2013-02-10 00:58:00,
2013-02-10 03:00:00,50.7,36.9,29.62,SSW,202,2.6,2.6,59,0.00,CLR,,0.00,WeatherDisplay:10.37,2013-02-10 01:00:00,
2013-02-10 03:01:00,50.7,36.9,29.62,SSW,202,3.5,3.5,59,0.00,CLR,,0.00,WeatherDisplay:10.37,2013-02-10 01:01:00,
2013-02-10 03:03:00,50.9,37.1,29.62,SSW,202,2.3,2.3,59,0.00,CLR,,0.00,WeatherDisplay:10.37,2013-02-10 01:03:00,
2013-02-10 03:04:00,50.9,37.1,29.62,SSW,202,2.3,2.3,59,0.00,CLR,,0.00,WeatherDisplay:10.37,2013-02-10 01:04:00,
2013-02-10 03:05:00,50.9,37.1,29.62,SSW,202,2.3,2.3,59,0.00,CLR,,0.00,WeatherDisplay:10.37,2013-02-10 01:05:00,
2013-02-10 03:06:00,50.9,36.6,29.62,SSW,202,3.5,3.5,58,0.00,CLR,,0.00,WeatherDisplay:10.37,2013-02-10 01:06:00,
2013-02-10 03:08:00,50.9,36.6,29.62,SSW,202,2.3,2.3,58,0.00,CLR,,0.00,WeatherDisplay:10.37,2013-02-10 01:08:00,
2013-02-10 03:09:00,50.9,36.6,29.62,SSW,202,3.5,3.5,58,0.00,CLR,,0.00,WeatherDisplay:10.37,2013-02-10 01:09:00,
2013-02-10 03:10:00,50.9,36.6,29.62,SSW,202,3.5,3.5,58,0.00,CLR,,0.00,WeatherDisplay:10.37,2013-02-10 01:10:00,
2013-02-10 03:11:00,50.9,36.6,29.62,SSW,202,3.5,3.5,58,0.00,CLR,,0.00,WeatherDisplay:10.37,2013-02-10 01:11:00,
2013-02-10 03:13:00,50.9,36.6,29.62,WSW,248,2.9,2.9,58,0.00,CLR,,0.00,WeatherDisplay:10.37,2013-02-10 01:13:00,
2013-02-10 03:14:00,50.9,36.6,29.62,SW,225,4.6,4.6,58,0.00,CLR,,0.00,WeatherDisplay:10.37,2013-02-10 01:14:00,
2013-02-10 03:15:00,50.9,36.6,29.62,SW,225,2.3,2.3,58,0.00,CLR,,0.00,WeatherDisplay:10.37,2013-02-10 01:15:00,
2013-02-10 03:16:00,50.9,36.6,29.62,WSW,248,4.3,4.3,58,0.00,CLR,,0.00,WeatherDisplay:10.37,2013-02-10 01:16:00,
2013-02-10 03:18:00,50.9,36.6,29.62,WSW,248,3.5,3.5,58,0.00,CLR,,0.00,WeatherDisplay:10.37,2013-02-10 01:18:00,
2013-02-10 03:19:00,50.9,36.6,29.62,SW,225,3.5,3.5,58,0.00,CLR,,0.00,WeatherDisplay:10.37,2013-02-10 01:19:00,
2013-02-10 03:20:00,50.9,36.6,29.62,WSW,248,3.3,3.3,58,0.00,CLR,,0.00,WeatherDisplay:10.37,2013-02-10 01:20:00,
2013-02-10 03:21:00,51.1,36.4,29.62,WSW,248,4.6,4.6,57,0.00,CLR,,0.00,WeatherDisplay:10.37,2013-02-10 01:21:00,
2013-02-10 03:23:00,51.1,36.4,29.62,SSW,202,4.6,4.6,57,0.00,CLR,,0.00,WeatherDisplay:10.37,2013-02-10 01:23:00,
2013-02-10 03:24:00,51.1,36.4,29.62,WSW,248,2.3,2.3,57,0.00,CLR,,0.00,WeatherDisplay:10.37,2013-02-10 01:24:00,
2013-02-10 03:25:00,51.1,35.9,29.62,WSW,248,3.5,3.5,56,0.00,CLR,,0.00,WeatherDisplay:10.37,2013-02-10 01:25:00,
2013-02-10 03:27:00,51.1,35.9,29.62,WSW,248,2.3,2.3,56,0.00,CLR,,0.00,WeatherDisplay:10.37,2013-02-10 01:27:00,
2013-02-10 03:28:00,50.9,35.7,29.62,WSW,248,0.9,0.0,56,0.00,CLR,,0.00,WeatherDisplay:10.37,2013-02-10 01:28:00,
2013-02-10 03:30:00,50.9,35.7,29.62,WSW,248,2.3,2.3,56,0.00,CLR,,0.00,WeatherDisplay:10.37,2013-02-10 01:30:00,
2013-02-10 03:32:00,50.9,35.3,29.62,WSW,248,2.3,2.3,55,0.00,CLR,,0.00,WeatherDisplay:10.37,2013-02-10 01:32:00,
2013-02-10 03:33:00,50.9,35.3,29.62,WSW,248,4.6,4.6,55,0.00,CLR,,0.00,WeatherDisplay:10.37,2013-02-10 01:33:00,
2013-02-10 03:35:00,50.9,35.3,29.62,SW,225,1.1,0.0,55,0.00,CLR,,0.00,WeatherDisplay:10.37,2013-02-10 01:35:00,
2013-02-10 03:37:00,50.9,34.8,29.62,WSW,248,2.3,2.3,54,0.00,CLR,,0.00,WeatherDisplay:10.37,2013-02-10 01:37:00,
2013-02-10 03:38:00,50.9,34.8,29.62,WSW,248,2.4,2.4,54,0.00,CLR,,0.00,WeatherDisplay:10.37,2013-02-10 01:38:00,
2013-02-10 03:40:00,50.9,34.8,29.62,SSW,202,5.8,5.8,54,0.00,CLR,,0.00,WeatherDisplay:10.37,2013-02-10 01:40:00,
2013-02-10 03:41:00,51.1,34.5,29.62,WSW,248,3.5,3.5,53,0.00,CLR,,0.00,WeatherDisplay:10.37,2013-02-10 01:41:00,
2013-02-10 03:42:00,51.1,34.5,29.62,WSW,248,4.6,4.6,53,0.00,CLR,,0.00,WeatherDisplay:10.37,2013-02-10 01:42:00,
2013-02-10 03:43:00,51.1,34.5,29.62,WSW,248,4.6,4.6,53,0.00,CLR,,0.00,WeatherDisplay:10.37,2013-02-10 01:43:00,
2013-02-10 03:45:00,51.1,34.5,29.62,West,270,3.8,3.8,53,0.00,CLR,,0.00,WeatherDisplay:10.37,2013-02-10 01:45:00,
2013-02-10 03:46:00,51.1,34.5,29.62,WSW,248,3.5,3.5,53,0.00,CLR,,0.00,WeatherDisplay:10.37,2013-02-10 01:46:00,
2013-02-10 03:47:00,51.1,34.1,29.62,WSW,248,4.6,4.6,52,0.00,CLR,,0.00,WeatherDisplay:10.37,2013-02-10 01:47:00,
2013-02-10 03:48:00,51.1,34.5,29.62,WSW,248,3.5,3.5,53,0.00,CLR,,0.00,WeatherDisplay:10.37,2013-02-10 01:48:00,
2013-02-10 03:50:00,51.1,34.1,29.62,WSW,248,4.6,4.6,52,0.00,CLR,,0.00,WeatherDisplay:10.37,2013-02-10 01:50:00,
2013-02-10 03:52:00,51.1,34.1,29.62,West,270,3.5,3.5,52,0.00,CLR,,0.00,WeatherDisplay:10.37,2013-02-10 01:52:00,
2013-02-10 03:53:00,51.1,34.1,29.62,West,270,4.6,4.6,52,0.00,CLR,,0.00,WeatherDisplay:10.37,2013-02-10 01:53:00,
2013-02-10 03:55:00,51.1,34.1,29.62,West,270,2.3,2.9,52,0.00,CLR,,0.00,WeatherDisplay:10.37,2013-02-10 01:55:00,
2013-02-10 03:57:00,51.1,34.1,29.62,West,270,4.3,4.3,52,0.00,CLR,,0.00,WeatherDisplay:10.37,2013-02-10 01:57:00,
2013-02-10 03:58:00,51.1,34.1,29.62,WSW,248,4.6,4.6,52,0.00,CLR,,0.00,WeatherDisplay:10.37,2013-02-10 01:58:00,
2013-02-10 04:00:00,51.1,34.1,29.62,West,270,4.0,4.0,52,0.00,CLR,,0.00,WeatherDisplay:10.37,2013-02-10 02:00:00,
2013-02-10 04:02:00,51.1,33.6,29.59,WSW,248,4.6,4.6,51,0.00,CLR,,0.00,WeatherDisplay:10.37,2013-02-10 02:02:00,
2013-02-10 04:05:00,51.1,33.6,29.59,WSW,250,2.0,5.0,51,0.00,CLR,,0.00,WeatherDisplay:10.37,2013-02-10 02:05:00,
2013-02-10 04:06:00,51.1,33.6,29.59,WSW,248,2.3,2.3,51,0.00,CLR,,0.00,WeatherDisplay:10.37,2013-02-10 02:06:00,
2013-02-10 04:07:00,50.9,33.4,29.59,WSW,248,1.1,1.1,51,0.00,CLR,,0.00,WeatherDisplay:10.37,2013-02-10 02:07:00,
2013-02-10 04:08:00,50.9,33.4,29.59,WSW,248,2.4,2.4,51,0.00,CLR,,0.00,WeatherDisplay:10.37,2013-02-10 02:08:00,
2013-02-10 04:10:00,50.9,33.4,29.59,WSW,248,2.3,2.3,51,0.00,CLR,,0.00,WeatherDisplay:10.37,2013-02-10 02:10:00,
2013-02-10 04:11:00,50.9,33.4,29.59,WSW,248,0.0,0.0,51,0.00,CLR,,0.00,WeatherDisplay:10.37,2013-02-10 02:11:00,
2013-02-10 04:12:00,50.5,33.1,29.59,WSW,248,1.1,0.0,51,0.00,CLR,,0.00,WeatherDisplay:10.37,2013-02-10 02:12:00,
2013-02-10 04:13:00,50.5,33.1,29.59,WSW,248,0.0,0.0,51,0.00,CLR,,0.00,WeatherDisplay:10.37,2013-02-10 02:13:00,
2013-02-10 04:15:00,50.5,33.1,29.59,WSW,248,2.9,2.9,51,0.00,CLR,,0.00,WeatherDisplay:10.37,2013-02-10 02:15:00,
2013-02-10 04:16:00,50.5,33.1,29.59,WSW,248,3.5,3.5,51,0.00,CLR,,0.00,WeatherDisplay:10.37,2013-02-10 02:16:00,
2013-02-10 04:18:00,50.5,33.6,29.59,WSW,248,1.1,0.0,52,0.00,CLR,,0.00,WeatherDisplay:10.37,2013-02-10 02:18:00,
2013-02-10 04:20:00,50.5,33.6,29.59,SSW,202,2.3,2.3,52,0.00,CLR,,0.00,WeatherDisplay:10.37,2013-02-10 02:20:00,
2013-02-10 04:21:00,50.5,33.6,29.59,SW,225,3.5,3.5,52,0.00,CLR,,0.00,WeatherDisplay:10.37,2013-02-10 02:21:00,
2013-02-10 04:23:00,50.7,33.7,29.59,SSW,202,4.6,4.6,52,0.00,CLR,,0.00,WeatherDisplay:10.37,2013-02-10 02:23:00,
2013-02-10 04:25:00,50.7,33.7,29.59,SSW,202,1.4,0.0,52,0.00,CLR,,0.00,WeatherDisplay:10.37,2013-02-10 02:25:00,
2013-02-10 04:26:00,50.7,33.7,29.59,SSW,202,1.4,1.4,52,0.00,CLR,,0.00,WeatherDisplay:10.37,2013-02-10 02:26:00,
2013-02-10 04:28:00,50.7,33.7,29.59,SSW,202,2.4,0.0,52,0.00,CLR,,0.00,WeatherDisplay:10.37,2013-02-10 02:28:00,
2013-02-10 04:30:00,50.7,34.2,29.59,SSW,202,2.3,2.3,53,0.00,CLR,,0.00,WeatherDisplay:10.37,2013-02-10 02:30:00,
2013-02-10 04:31:00,50.7,34.2,29.59,SSW,202,2.3,2.3,53,0.00,CLR,,0.00,WeatherDisplay:10.37,2013-02-10 02:31:00,
2013-02-10 04:33:00,50.9,34.4,29.59,SSW,202,3.5,3.5,53,0.00,CLR,,0.00,WeatherDisplay:10.37,2013-02-10 02:33:00,
2013-02-10 04:35:00,50.9,34.4,29.59,SSW,202,2.3,2.3,53,0.00,CLR,,0.00,WeatherDisplay:10.37,2013-02-10 02:35:00,
2013-02-10 04:36:00,50.7,34.2,29.59,SSW,202,1.1,1.1,53,0.00,CLR,,0.00,WeatherDisplay:10.37,2013-02-10 02:36:00,
2013-02-10 04:38:00,50.7,34.2,29.59,SSW,202,2.0,0.0,53,0.00,CLR,,0.00,WeatherDisplay:10.37,2013-02-10 02:38:00,
2013-02-10 04:41:00,50.7,34.7,29.59,WSW,248,3.5,3.5,54,0.00,CLR,,0.00,WeatherDisplay:10.37,2013-02-10 02:41:00,
2013-02-10 04:43:00,50.7,34.7,29.59,WSW,248,2.3,2.3,54,0.00,CLR,,0.00,WeatherDisplay:10.37,2013-02-10 02:43:00,
2013-02-10 04:46:00,50.5,34.5,29.62,WSW,248,1.1,1.1,54,0.00,CLR,,0.00,WeatherDisplay:10.37,2013-02-10 02:46:00,
2013-02-10 04:48:00,50.5,34.5,29.62,WSW,248,2.3,2.3,54,0.00,CLR,,0.00,WeatherDisplay:10.37,2013-02-10 02:48:00,
2013-02-10 04:51:00,50.5,35.0,29.62,WSW,248,1.4,1.4,55,0.00,CLR,,0.00,WeatherDisplay:10.37,2013-02-10 02:51:00,
2013-02-10 04:53:00,50.7,35.6,29.62,SSW,202,4.6,4.6,56,0.00,CLR,,0.00,WeatherDisplay:10.37,2013-02-10 02:53:00,
2013-02-10 04:54:00,50.7,35.6,29.62,WSW,248,4.6,4.6,56,0.00,CLR,,0.00,WeatherDisplay:10.37,2013-02-10 02:54:00,
2013-02-10 04:56:00,50.9,36.2,29.62,SSW,202,3.5,3.5,57,0.00,CLR,,0.00,WeatherDisplay:10.37,2013-02-10 02:56:00,
2013-02-10 04:58:00,50.9,36.2,29.62,SSW,202,3.8,3.8,57,0.00,CLR,,0.00,WeatherDisplay:10.37,2013-02-10 02:58:00,
2013-02-10 04:59:00,50.9,36.2,29.62,SSW,202,2.3,2.4,57,0.00,CLR,,0.00,WeatherDisplay:10.37,2013-02-10 02:59:00,
2013-02-10 05:01:00,50.9,36.2,29.59,SSW,202,2.3,2.3,57,0.00,CLR,,0.00,WeatherDisplay:10.37,2013-02-10 03:01:00,
2013-02-10 05:02:00,50.9,36.2,29.59,SSW,202,1.1,1.4,57,0.00,CLR,,0.00,WeatherDisplay:10.37,2013-02-10 03:02:00,
2013-02-10 05:03:00,50.9,36.2,29.59,SSW,202,2.3,2.3,57,0.00,CLR,,0.00,WeatherDisplay:10.37,2013-02-10 03:03:00,
2013-02-10 05:04:00,50.9,36.2,29.59,SSW,202,2.3,2.3,57,0.00,CLR,,0.00,WeatherDisplay:10.37,2013-02-10 03:04:00,
2013-02-10 05:06:00,50.9,35.7,29.59,SSW,202,2.3,2.3,56,0.00,CLR,,0.00,WeatherDisplay:10.37,2013-02-10 03:06:00,
2013-02-10 05:07:00,50.9,36.2,29.59,SSW,202,2.4,2.4,57,0.00,CLR,,0.00,WeatherDisplay:10.37,2013-02-10 03:07:00,
2013-02-10 05:08:00,50.9,36.2,29.59,SW,225,3.3,3.3,57,0.00,CLR,,0.00,WeatherDisplay:10.37,2013-02-10 03:08:00,
2013-02-10 05:09:00,50.9,36.2,29.59,SSW,202,3.5,3.5,57,0.00,CLR,,0.00,WeatherDisplay:10.37,2013-02-10 03:09:00,
2013-02-10 05:11:00,50.9,36.2,29.59,WSW,248,4.6,4.6,57,0.00,CLR,,0.00,WeatherDisplay:10.37,2013-02-10 03:11:00,
2013-02-10 05:12:00,50.9,36.2,29.59,WSW,248,4.6,4.6,57,0.00,CLR,,0.00,WeatherDisplay:10.37,2013-02-10 03:12:00,
2013-02-10 05:13:00,51.1,36.8,29.59,WSW,248,4.9,4.9,58,0.00,CLR,,0.00,WeatherDisplay:10.37,2013-02-10 03:13:00,
2013-02-10 05:14:00,51.1,36.8,29.59,SW,225,4.6,4.6,58,0.00,CLR,,0.00,WeatherDisplay:10.37,2013-02-10 03:14:00,
2013-02-10 05:16:00,51.1,36.8,29.62,SSW,202,3.5,3.5,58,0.00,CLR,,0.00,WeatherDisplay:10.37,2013-02-10 03:16:00,
2013-02-10 05:17:00,50.9,36.6,29.62,SSW,202,3.5,3.5,58,0.00,CLR,,0.00,WeatherDisplay:10.37,2013-02-10 03:17:00,
2013-02-10 05:19:00,50.9,36.6,29.62,SSW,202,2.3,0.0,58,0.00,CLR,,0.00,WeatherDisplay:10.37,2013-02-10 03:19:00,
2013-02-10 05:21:00,50.7,36.0,29.62,SSW,202,1.4,0.0,57,0.00,CLR,,0.00,WeatherDisplay:10.37,2013-02-10 03:21:00,
2013-02-10 05:22:00,50.7,36.5,29.62,SW,225,2.3,2.4,58,0.00,CLR,,0.00,WeatherDisplay:10.37,2013-02-10 03:22:00,
2013-02-10 05:24:00,50.7,36.5,29.62,SW,225,2.3,2.3,58,0.00,CLR,,0.00,WeatherDisplay:10.37,2013-02-10 03:24:00,
2013-02-10 05:27:00,50.7,36.5,29.62,WSW,248,2.3,2.3,58,0.00,CLR,,0.00,WeatherDisplay:10.37,2013-02-10 03:27:00,
2013-02-10 05:28:00,50.7,36.5,29.62,WSW,248,2.3,2.3,58,0.00,CLR,,0.00,WeatherDisplay:10.37,2013-02-10 03:28:00,
2013-02-10 05:29:00,50.7,36.5,29.62,WSW,248,2.3,2.3,58,0.00,CLR,,0.00,WeatherDisplay:10.37,2013-02-10 03:29:00,
2013-02-10 05:32:00,50.5,36.3,29.62,WSW,248,1.1,0.0,58,0.00,CLR,,0.00,WeatherDisplay:10.37,2013-02-10 03:32:00,
2013-02-10 05:33:00,50.5,36.3,29.62,WSW,248,1.1,0.0,58,0.00,CLR,,0.00,WeatherDisplay:10.37,2013-02-10 03:33:00,
2013-02-10 05:34:00,50.4,36.1,29.62,WSW,248,2.6,2.6,58,0.00,CLR,,0.00,WeatherDisplay:10.37,2013-02-10 03:34:00,
2013-02-10 05:37:00,50.4,36.1,29.62,SW,225,1.1,1.1,58,0.00,CLR,,0.00,WeatherDisplay:10.37,2013-02-10 03:37:00,
2013-02-10 05:38:00,50.4,36.1,29.62,SW,225,1.1,1.1,58,0.00,CLR,,0.00,WeatherDisplay:10.37,2013-02-10 03:38:00,
2013-02-10 05:39:00,50.4,36.1,29.62,SW,225,2.3,2.3,58,0.00,CLR,,0.00,WeatherDisplay:10.37,2013-02-10 03:39:00,
2013-02-10 05:43:00,50.5,36.7,29.62,WSW,248,3.5,3.5,59,0.00,CLR,,0.00,WeatherDisplay:10.37,2013-02-10 03:43:00,
2013-02-10 05:44:00,50.5,36.3,29.62,WSW,248,2.4,2.4,58,0.00,CLR,,0.00,WeatherDisplay:10.37,2013-02-10 03:44:00,
2013-02-10 05:48:00,50.7,36.9,29.62,SSW,202,2.3,2.3,59,0.00,CLR,,0.00,WeatherDisplay:10.37,2013-02-10 03:48:00,
2013-02-10 05:49:00,50.7,36.9,29.62,SW,225,2.6,2.6,59,0.00,CLR,,0.00,WeatherDisplay:10.37,2013-02-10 03:49:00,
2013-02-10 05:50:00,50.7,36.9,29.62,SW,225,2.3,2.4,59,0.00,CLR,,0.00,WeatherDisplay:10.37,2013-02-10 03:50:00,
2013-02-10 05:53:00,50.7,36.9,29.62,WSW,248,3.5,3.5,59,0.00,CLR,,0.00,WeatherDisplay:10.37,2013-02-10 03:53:00,
2013-02-10 05:54:00,50.7,36.9,29.62,WSW,248,2.9,2.9,59,0.00,CLR,,0.00,WeatherDisplay:10.37,2013-02-10 03:54:00,
2013-02-10 05:55:00,50.7,36.9,29.62,WSW,248,2.4,2.4,59,0.00,CLR,,0.00,WeatherDisplay:10.37,2013-02-10 03:55:00,
2013-02-10 05:58:00,50.9,37.1,29.62,WSW,248,5.8,5.8,59,0.00,CLR,,0.00,WeatherDisplay:10.37,2013-02-10 03:58:00,
2013-02-10 05:59:00,50.9,36.6,29.62,SSW,202,10.4,10.4,58,0.00,CLR,,0.00,WeatherDisplay:10.37,2013-02-10 03:59:00,
2013-02-10 06:00:00,50.9,36.2,29.62,SSW,202,9.2,9.2,57,0.00,CLR,,0.00,WeatherDisplay:10.37,2013-02-10 04:00:00,
2013-02-10 06:03:00,50.9,34.8,29.62,SSE,158,5.6,5.6,54,0.00,CLR,,0.00,WeatherDisplay:10.37,2013-02-10 04:03:00,
2013-02-10 06:04:00,50.9,34.8,29.62,SW,225,5.8,5.8,54,0.00,CLR,,0.00,WeatherDisplay:10.37,2013-02-10 04:04:00,
2013-02-10 06:05:00,50.9,34.8,29.62,SSW,202,4.6,4.6,54,0.00,CLR,,0.00,WeatherDisplay:10.37,2013-02-10 04:05:00,
2013-02-10 06:08:00,50.9,34.4,29.62,SW,225,8.1,8.1,53,0.00,CLR,,0.00,WeatherDisplay:10.37,2013-02-10 04:08:00,
2013-02-10 06:10:00,50.9,34.4,29.62,WSW,248,4.6,4.6,53,0.00,CLR,,0.00,WeatherDisplay:10.37,2013-02-10 04:10:00,
2013-02-10 06:13:00,50.9,34.8,29.62,SSW,202,3.5,3.5,54,0.00,CLR,,0.00,WeatherDisplay:10.37,2013-02-10 04:13:00,
2013-02-10 06:15:00,50.7,34.7,29.62,WSW,248,3.5,3.5,54,0.00,CLR,,0.00,WeatherDisplay:10.37,2013-02-10 04:15:00,
2013-02-10 06:18:00,50.7,35.1,29.62,SW,225,2.3,2.3,55,0.00,CLR,,0.00,WeatherDisplay:10.37,2013-02-10 04:18:00,
2013-02-10 06:20:00,50.5,35.0,29.62,SW,225,2.4,0.0,55,0.00,CLR,,0.00,WeatherDisplay:10.37,2013-02-10 04:20:00,
2013-02-10 06:23:00,50.5,35.0,29.62,SSW,202,2.9,2.9,55,0.00,CLR,,0.00,WeatherDisplay:10.37,2013-02-10 04:23:00,
2013-02-10 06:25:00,50.5,35.4,29.62,SSW,202,2.3,2.3,56,0.00,CLR,,0.00,WeatherDisplay:10.37,2013-02-10 04:25:00,
2013-02-10 06:26:00,50.5,35.9,29.62,SSW,202,3.1,3.1,57,0.00,CLR,,0.00,WeatherDisplay:10.37,2013-02-10 04:26:00,
2013-02-10 06:28:00,50.5,35.9,29.62,SSW,202,2.4,2.4,57,0.00,CLR,,0.00,WeatherDisplay:10.37,2013-02-10 04:28:00,
2013-02-10 06:30:00,50.5,36.3,29.62,SSW,202,5.8,5.8,58,0.00,CLR,,0.00,WeatherDisplay:10.37,2013-02-10 04:30:00,
2013-02-10 06:31:00,50.5,36.3,29.62,SSW,202,5.8,5.8,58,0.00,CLR,,0.00,WeatherDisplay:10.37,2013-02-10 04:31:00,
2013-02-10 06:33:00,50.5,36.3,29.62,SSW,202,3.5,3.5,58,0.00,CLR,,0.00,WeatherDisplay:10.37,2013-02-10 04:33:00,
2013-02-10 06:34:00,50.5,36.3,29.62,SSW,202,3.5,3.5,58,0.00,CLR,,0.00,WeatherDisplay:10.37,2013-02-10 04:34:00,
2013-02-10 06:35:00,50.5,36.3,29.62,SSW,202,3.5,3.5,58,0.00,CLR,,0.00,WeatherDisplay:10.37,2013-02-10 04:35:00,
2013-02-10 06:36:00,50.4,36.1,29.62,SSW,202,3.5,3.5,58,0.00,CLR,,0.00,WeatherDisplay:10.37,2013-02-10 04:36:00,
2013-02-10 06:38:00,50.2,35.5,29.62,SSW,202,3.5,3.5,57,0.00,CLR,,0.00,WeatherDisplay:10.37,2013-02-10 04:38:00,
2013-02-10 06:39:00,50.2,35.5,29.62,SSW,202,3.5,3.5,57,0.00,CLR,,0.00,WeatherDisplay:10.37,2013-02-10 04:39:00,
2013-02-10 06:40:00,50.2,35.5,29.62,SSW,202,1.1,1.4,57,0.00,CLR,,0.00,WeatherDisplay:10.37,2013-02-10 04:40:00,
2013-02-10 06:41:00,50.2,35.5,29.62,SSW,202,1.1,1.1,57,0.00,CLR,,0.00,WeatherDisplay:10.37,2013-02-10 04:41:00,
2013-02-10 06:43:00,50.2,35.5,29.62,SSW,202,1.1,1.1,57,0.00,CLR,,0.00,WeatherDisplay:10.37,2013-02-10 04:43:00,
2013-02-10 06:44:00,50.0,35.4,29.62,SSW,202,2.3,2.3,57,0.00,CLR,,0.00,WeatherDisplay:10.37,2013-02-10 04:44:00,
2013-02-10 06:45:00,50.0,35.4,29.59,SSW,202,2.3,2.3,57,0.00,CLR,,0.00,WeatherDisplay:10.37,2013-02-10 04:45:00,
2013-02-10 06:46:00,50.0,35.4,29.59,SSW,202,2.3,2.3,57,0.00,CLR,,0.00,WeatherDisplay:10.37,2013-02-10 04:46:00,
2013-02-10 06:48:00,50.0,35.4,29.59,SSW,202,2.4,2.4,57,0.00,CLR,,0.00,WeatherDisplay:10.37,2013-02-10 04:48:00,
2013-02-10 06:49:00,50.0,35.4,29.59,SSW,202,3.5,3.5,57,0.00,CLR,,0.00,WeatherDisplay:10.37,2013-02-10 04:49:00,
2013-02-10 06:50:00,50.0,35.4,29.59,SSW,202,2.6,2.6,57,0.00,CLR,,0.00,WeatherDisplay:10.37,2013-02-10 04:50:00,
2013-02-10 06:51:00,50.0,35.4,29.59,SSW,202,3.5,3.5,57,0.00,CLR,,0.00,WeatherDisplay:10.37,2013-02-10 04:51:00,
2013-02-10 06:53:00,50.0,35.4,29.59,SSW,202,3.5,3.5,57,0.00,CLR,,0.00,WeatherDisplay:10.37,2013-02-10 04:53:00,
2013-02-10 06:54:00,50.0,35.4,29.59,SSW,202,2.6,2.6,57,0.00,CLR,,0.00,WeatherDisplay:10.37,2013-02-10 04:54:00,
2013-02-10 06:55:00,50.2,35.5,29.59,SSW,202,3.5,3.5,57,0.00,CLR,,0.00,WeatherDisplay:10.37,2013-02-10 04:55:00,
2013-02-10 06:56:00,50.0,35.4,29.59,SSW,202,3.5,3.5,57,0.00,CLR,,0.00,WeatherDisplay:10.37,2013-02-10 04:56:00,
2013-02-10 06:58:00,50.0,35.4,29.59,WSW,248,3.8,3.8,57,0.00,CLR,,0.00,WeatherDisplay:10.37,2013-02-10 04:58:00,
2013-02-10 06:59:00,50.0,35.4,29.59,WSW,248,3.5,3.5,57,0.00,CLR,,0.00,WeatherDisplay:10.37,2013-02-10 04:59:00,
2013-02-10 07:00:00,50.0,35.4,29.59,SSW,212,2.0,4.0,57,0.00,CLR,,0.00,WeatherDisplay:10.37,2013-02-10 05:00:00,
2013-02-10 07:05:00,50.0,35.4,29.59,WSW,237,2.0,4.0,57,0.00,CLR,,0.00,WeatherDisplay:10.37,2013-02-10 05:05:00,
2013-02-10 07:10:00,49.8,35.6,29.59,WSW,248,2.3,2.3,58,0.00,CLR,,0.00,WeatherDisplay:10.37,2013-02-10 05:10:00,
2013-02-10 07:15:00,49.8,35.6,29.59,SSW,202,3.5,3.5,58,0.00,CLR,,0.00,WeatherDisplay:10.37,2013-02-10 05:15:00,
2013-02-10 07:20:00,49.6,35.5,29.59,SW,225,2.3,2.3,58,0.00,CLR,,0.00,WeatherDisplay:10.37,2013-02-10 05:20:00,
2013-02-10 07:21:00,49.6,35.5,29.59,SW,225,2.3,2.3,58,0.00,CLR,,0.00,WeatherDisplay:10.37,2013-02-10 05:21:00,
2013-02-10 07:25:00,49.3,35.1,29.59,SW,225,2.4,0.0,58,0.00,CLR,,0.00,WeatherDisplay:10.37,2013-02-10 05:25:00,
2013-02-10 07:26:00,49.3,35.1,29.59,SW,225,2.3,2.3,58,0.00,CLR,,0.00,WeatherDisplay:10.37,2013-02-10 05:26:00,
2013-02-10 07:30:00,49.1,34.9,29.59,SW,225,2.3,2.3,58,0.00,CLR,,0.00,WeatherDisplay:10.37,2013-02-10 05:30:00,
2013-02-10 07:31:00,49.1,34.9,29.59,SW,225,2.3,2.3,58,0.00,CLR,,0.00,WeatherDisplay:10.37,2013-02-10 05:31:00,
2013-02-10 07:35:00,49.1,35.4,29.59,SW,225,2.3,2.3,59,0.00,CLR,,0.00,WeatherDisplay:10.37,2013-02-10 05:35:00,
2013-02-10 07:36:00,49.1,35.4,29.59,SW,225,2.3,2.3,59,0.00,CLR,,0.00,WeatherDisplay:10.37,2013-02-10 05:36:00,
2013-02-10 07:41:00,49.1,35.4,29.59,NNW,338,3.1,3.1,59,0.00,CLR,,0.00,WeatherDisplay:10.37,2013-02-10 05:41:00,
2013-02-10 07:46:00,48.9,35.2,29.62,NE,45,3.5,3.5,59,0.00,CLR,,0.00,WeatherDisplay:10.37,2013-02-10 05:46:00,
2013-02-10 07:47:00,48.9,35.2,29.62,NE,45,3.5,3.5,59,0.00,CLR,,0.00,WeatherDisplay:10.37,2013-02-10 05:47:00,
2013-02-10 07:51:00,48.9,35.6,29.62,NNE,22,2.3,2.4,60,0.00,CLR,,0.00,WeatherDisplay:10.37,2013-02-10 05:51:00,
2013-02-10 07:52:00,48.9,35.6,29.62,NNE,22,2.4,2.4,60,0.00,CLR,,0.00,WeatherDisplay:10.37,2013-02-10 05:52:00,
2013-02-10 07:53:00,48.9,35.6,29.62,NNE,22,2.3,2.3,60,0.00,CLR,,0.00,WeatherDisplay:10.37,2013-02-10 05:53:00,
2013-02-10 07:56:00,48.7,35.5,29.62,NNE,22,2.3,2.3,60,0.00,CLR,,0.00,WeatherDisplay:10.37,2013-02-10 05:56:00,
2013-02-10 07:57:00,48.7,35.5,29.62,NNE,22,2.3,2.3,60,0.00,CLR,,0.00,WeatherDisplay:10.37,2013-02-10 05:57:00,
2013-02-10 07:58:00,48.7,35.5,29.62,NNE,22,2.3,2.3,60,0.00,CLR,,0.00,WeatherDisplay:10.37,2013-02-10 05:58:00,
2013-02-10 08:01:00,48.9,35.6,29.62,North,0,2.3,2.3,60,0.00,CLR,,0.00,WeatherDisplay:10.37,2013-02-10 06:01:00,
2013-02-10 08:02:00,48.9,35.6,29.62,North,0,2.3,2.3,60,0.00,CLR,,0.00,WeatherDisplay:10.37,2013-02-10 06:02:00,
2013-02-10 08:03:00,48.9,36.1,29.62,North,0,2.3,2.3,61,0.00,CLR,,0.00,WeatherDisplay:10.37,2013-02-10 06:03:00,
2013-02-10 08:06:00,48.9,36.1,29.62,North,0,1.6,1.6,61,0.00,CLR,,0.00,WeatherDisplay:10.37,2013-02-10 06:06:00,
2013-02-10 08:07:00,48.9,36.1,29.62,North,0,1.1,1.4,61,0.00,CLR,,0.00,WeatherDisplay:10.37,2013-02-10 06:07:00,
2013-02-10 08:08:00,48.9,36.1,29.62,North,0,1.6,0.0,61,0.00,CLR,,0.00,WeatherDisplay:10.37,2013-02-10 06:08:00,
2013-02-10 08:11:00,48.9,36.1,29.62,North,0,1.4,1.4,61,0.00,CLR,,0.00,WeatherDisplay:10.37,2013-02-10 06:11:00,
2013-02-10 08:12:00,48.9,35.6,29.62,North,0,1.1,0.0,60,0.00,CLR,,0.00,WeatherDisplay:10.37,2013-02-10 06:12:00,
2013-02-10 08:13:00,48.9,35.6,29.62,North,0,0.0,0.0,60,0.00,CLR,,0.00,WeatherDisplay:10.37,2013-02-10 06:13:00,
2013-02-10 08:16:00,48.7,35.5,29.62,North,0,0.0,0.0,60,0.00,CLR,,0.00,WeatherDisplay:10.37,2013-02-10 06:16:00,
2013-02-10 08:17:00,48.7,35.5,29.62,North,0,0.0,0.0,60,0.00,CLR,,0.00,WeatherDisplay:10.37,2013-02-10 06:17:00,
2013-02-10 08:18:00,48.7,35.5,29.62,North,0,0.0,0.0,60,0.00,CLR,,0.00,WeatherDisplay:10.37,2013-02-10 06:18:00,
2013-02-10 08:19:00,48.7,35.5,29.62,North,0,0.0,0.0,60,0.00,CLR,,0.00,WeatherDisplay:10.37,2013-02-10 06:19:00,
2013-02-10 08:22:00,48.7,35.5,29.62,North,0,0.0,0.0,60,0.00,CLR,,0.00,WeatherDisplay:10.37,2013-02-10 06:22:00,
2013-02-10 08:23:00,48.7,35.5,29.62,North,0,0.0,0.0,60,0.00,CLR,,0.00,WeatherDisplay:10.37,2013-02-10 06:23:00,
2013-02-10 08:24:00,48.7,35.9,29.62,North,0,0.0,0.0,61,0.00,CLR,,0.00,WeatherDisplay:10.37,2013-02-10 06:24:00,
2013-02-10 08:27:00,49.3,36.4,29.62,North,0,0.0,0.0,61,0.00,CLR,,0.00,WeatherDisplay:10.37,2013-02-10 06:27:00,
2013-02-10 08:28:00,49.6,36.7,29.62,North,0,0.9,0.0,61,0.00,CLR,,0.00,WeatherDisplay:10.37,2013-02-10 06:28:00,
2013-02-10 08:29:00,49.6,36.7,29.62,North,0,0.0,0.0,61,0.00,CLR,,0.00,WeatherDisplay:10.37,2013-02-10 06:29:00,
2013-02-10 08:32:00,51.1,38.5,29.62,North,0,0.0,0.0,62,0.00,CLR,,0.00,WeatherDisplay:10.37,2013-02-10 06:32:00,
2013-02-10 08:33:00,51.1,38.5,29.62,North,0,0.0,0.0,62,0.00,CLR,,0.00,WeatherDisplay:10.37,2013-02-10 06:33:00,
2013-02-10 08:34:00,51.4,38.8,29.62,North,0,0.0,0.0,62,0.00,CLR,,0.00,WeatherDisplay:10.37,2013-02-10 06:34:00,
2013-02-10 08:38:00,52.3,40.1,29.62,NNE,22,0.0,0.0,63,0.00,CLR,,0.00,WeatherDisplay:10.37,2013-02-10 06:38:00,
2013-02-10 08:39:00,52.5,39.9,29.62,NNE,22,0.0,0.0,62,0.00,CLR,,0.00,WeatherDisplay:10.37,2013-02-10 06:39:00,
2013-02-10 08:43:00,52.7,40.0,29.62,ENE,68,0.0,0.0,62,0.00,CLR,,0.00,WeatherDisplay:10.37,2013-02-10 06:43:00,
2013-02-10 08:44:00,52.5,39.0,29.62,NE,45,2.3,2.3,60,0.00,CLR,,0.00,WeatherDisplay:10.37,2013-02-10 06:44:00,
2013-02-10 08:48:00,52.9,38.5,29.62,East,90,4.6,4.6,58,0.00,CLR,,0.00,WeatherDisplay:10.37,2013-02-10 06:48:00,
2013-02-10 08:49:00,52.9,38.5,29.62,ENE,68,4.6,4.6,58,0.00,CLR,,0.00,WeatherDisplay:10.37,2013-02-10 06:49:00,
2013-02-10 08:53:00,53.8,38.9,29.62,ENE,68,1.6,0.0,57,0.00,CLR,,0.00,WeatherDisplay:10.37,2013-02-10 06:53:00,
2013-02-10 08:54:00,54.1,39.2,29.62,ENE,68,1.6,1.6,57,0.00,CLR,,0.00,WeatherDisplay:10.37,2013-02-10 06:54:00,
2013-02-10 08:58:00,54.9,39.9,29.62,East,90,1.6,0.0,57,0.00,CLR,,0.00,WeatherDisplay:10.37,2013-02-10 06:58:00,
2013-02-10 08:59:00,54.9,39.9,29.62,East,90,1.1,1.1,57,0.00,CLR,,0.00,WeatherDisplay:10.37,2013-02-10 06:59:00,
2013-02-10 09:00:00,55.0,40.1,29.62,East,90,1.1,1.1,57,0.00,CLR,,0.00,WeatherDisplay:10.37,2013-02-10 07:00:00,
2013-02-10 09:03:00,56.3,41.3,29.62,East,90,0.0,0.0,57,0.00,CLR,,0.00,WeatherDisplay:10.37,2013-02-10 07:03:00,
2013-02-10 09:04:00,56.3,41.3,29.62,East,90,1.1,0.0,57,0.00,CLR,,0.00,WeatherDisplay:10.37,2013-02-10 07:04:00,
2013-02-10 09:05:00,56.7,41.6,29.62,East,90,2.4,0.0,57,0.00,CLR,,0.00,WeatherDisplay:10.37,2013-02-10 07:05:00,
2013-02-10 09:08:00,56.8,38.4,29.62,WNW,292,3.5,3.5,50,0.00,CLR,,0.00,WeatherDisplay:10.37,2013-02-10 07:08:00,
2013-02-10 09:09:00,56.8,38.4,29.62,WNW,292,3.5,3.5,50,0.00,CLR,,0.00,WeatherDisplay:10.37,2013-02-10 07:09:00,
2013-02-10 09:10:00,56.7,37.2,29.62,WSW,248,4.6,4.6,48,0.00,CLR,,0.00,WeatherDisplay:10.37,2013-02-10 07:10:00,
2013-02-10 09:14:00,56.7,37.2,29.62,WNW,292,3.5,3.5,48,0.00,CLR,,0.00,WeatherDisplay:10.37,2013-02-10 07:14:00,
2013-02-10 09:15:00,57.0,37.0,29.62,WNW,292,5.8,5.8,47,0.00,CLR,,0.00,WeatherDisplay:10.37,2013-02-10 07:15:00,
2013-02-10 09:19:00,57.0,37.0,29.59,WNW,292,3.5,3.5,47,0.00,CLR,,0.00,WeatherDisplay:10.37,2013-02-10 07:19:00,
2013-02-10 09:20:00,57.2,37.1,29.59,WSW,248,2.3,2.3,47,0.00,CLR,,0.00,WeatherDisplay:10.37,2013-02-10 07:20:00,
2013-02-10 09:24:00,57.6,36.9,29.59,NNW,338,2.3,2.3,46,0.00,CLR,,0.00,WeatherDisplay:10.37,2013-02-10 07:24:00,
2013-02-10 09:25:00,57.9,37.8,29.59,NE,45,2.9,2.9,47,0.00,CLR,,0.00,WeatherDisplay:10.37,2013-02-10 07:25:00,
2013-02-10 09:29:00,58.1,37.4,29.59,North,0,2.9,0.0,46,0.00,CLR,,0.00,WeatherDisplay:10.37,2013-02-10 07:29:00,
2013-02-10 09:30:00,58.1,37.4,29.59,NNW,338,2.6,2.6,46,0.00,CLR,,0.00,WeatherDisplay:10.37,2013-02-10 07:30:00,
2013-02-10 09:35:00,57.9,36.7,29.59,NNE,22,2.3,2.4,45,0.00,CLR,,0.00,WeatherDisplay:10.37,2013-02-10 07:35:00,
2013-02-10 09:40:00,57.2,36.0,29.59,NNW,338,2.3,2.3,45,0.00,CLR,,0.00,WeatherDisplay:10.37,2013-02-10 07:40:00,
2013-02-10 09:45:00,56.3,35.8,29.59,ENE,68,0.0,0.0,46,0.00,CLR,,0.00,WeatherDisplay:10.37,2013-02-10 07:45:00,
2013-02-10 09:46:00,56.1,35.6,29.62,ENE,68,0.0,0.0,46,0.00,CLR,,0.00,WeatherDisplay:10.37,2013-02-10 07:46:00,
2013-02-10 09:50:00,55.8,35.3,29.62,NNE,22,3.5,3.5,46,0.00,CLR,,0.00,WeatherDisplay:10.37,2013-02-10 07:50:00,
2013-02-10 09:51:00,55.6,35.1,29.62,NNE,22,3.5,3.5,46,0.00,CLR,,0.00,WeatherDisplay:10.37,2013-02-10 07:51:00,
2013-02-10 09:55:00,55.4,34.9,29.62,NNE,22,1.1,0.0,46,0.00,CLR,,0.00,WeatherDisplay:10.37,2013-02-10 07:55:00,
2013-02-10 09:56:00,55.4,34.9,29.62,NNE,22,1.1,0.0,46,0.00,CLR,,0.00,WeatherDisplay:10.37,2013-02-10 07:56:00,
2013-02-10 09:57:00,55.4,34.9,29.62,NNE,22,2.0,0.0,46,0.00,CLR,,0.00,WeatherDisplay:10.37,2013-02-10 07:57:00,
2013-02-10 10:00:00,55.8,35.8,29.59,WSW,248,4.6,4.6,47,0.00,CLR,,0.00,WeatherDisplay:10.37,2013-02-10 08:00:00,
2013-02-10 10:01:00,55.9,36.0,29.59,WSW,248,2.4,2.4,47,0.00,CLR,,0.00,WeatherDisplay:10.37,2013-02-10 08:01:00,
2013-02-10 10:02:00,56.1,36.1,29.59,WSW,248,2.3,2.3,47,0.00,CLR,,0.00,WeatherDisplay:10.37,2013-02-10 08:02:00,
2013-02-10 10:05:00,57.2,36.6,29.59,WSW,248,4.6,4.6,46,0.00,CLR,,0.00,WeatherDisplay:10.37,2013-02-10 08:05:00,
2013-02-10 10:06:00,57.2,36.6,29.59,WSW,248,4.6,4.6,46,0.00,CLR,,0.00,WeatherDisplay:10.37,2013-02-10 08:06:00,
2013-02-10 10:07:00,57.2,36.6,29.59,West,270,5.6,5.6,46,0.00,CLR,,0.00,WeatherDisplay:10.37,2013-02-10 08:07:00,
2013-02-10 10:10:00,57.6,36.4,29.59,WNW,292,3.5,3.6,45,0.00,CLR,,0.00,WeatherDisplay:10.37,2013-02-10 08:10:00,
2013-02-10 10:11:00,57.6,36.4,29.59,WNW,292,3.5,3.6,45,0.00,CLR,,0.00,WeatherDisplay:10.37,2013-02-10 08:11:00,
2013-02-10 10:12:00,57.9,36.7,29.59,WSW,248,5.8,5.8,45,0.00,CLR,,0.00,WeatherDisplay:10.37,2013-02-10 08:12:00,
2013-02-10 10:16:00,58.1,36.3,29.62,West,270,3.5,3.5,44,0.00,CLR,,0.00,WeatherDisplay:10.37,2013-02-10 08:16:00,
2013-02-10 10:17:00,58.5,37.2,29.62,SW,225,2.0,0.0,45,0.00,CLR,,0.00,WeatherDisplay:10.37,2013-02-10 08:17:00,
2013-02-10 10:21:00,58.8,36.4,29.62,WNW,292,3.6,3.6,43,0.00,CLR,,0.00,WeatherDisplay:10.37,2013-02-10 08:21:00,
2013-02-10 10:22:00,59.4,36.2,29.62,WNW,292,6.0,6.0,42,0.00,CLR,,0.00,WeatherDisplay:10.37,2013-02-10 08:22:00,
2013-02-10 10:26:00,59.4,36.2,29.62,WNW,292,2.6,2.6,42,0.00,CLR,,0.00,WeatherDisplay:10.37,2013-02-10 08:26:00,
2013-02-10 10:27:00,59.9,37.3,29.62,WNW,292,2.3,0.0,43,0.00,CLR,,0.00,WeatherDisplay:10.37,2013-02-10 08:27:00,
2013-02-10 10:31:00,60.4,37.2,29.59,WSW,248,2.3,2.9,42,0.00,CLR,,0.00,WeatherDisplay:10.37,2013-02-10 08:31:00,
2013-02-10 10:32:00,60.3,36.4,29.59,WSW,248,3.5,0.0,41,0.00,CLR,,0.00,WeatherDisplay:10.37,2013-02-10 08:32:00,
2013-02-10 10:33:00,60.4,37.2,29.59,SW,225,3.5,0.0,42,0.00,CLR,,0.00,WeatherDisplay:10.37,2013-02-10 08:33:00,
2013-02-10 10:36:00,60.4,35.3,29.59,WSW,248,4.6,4.6,39,0.00,CLR,,0.00,WeatherDisplay:10.37,2013-02-10 08:36:00,
2013-02-10 10:37:00,60.4,35.3,29.59,WSW,248,4.6,4.6,39,0.00,CLR,,0.00,WeatherDisplay:10.37,2013-02-10 08:37:00,
2013-02-10 10:38:00,60.6,35.5,29.59,WSW,248,4.6,4.6,39,0.00,CLR,,0.00,WeatherDisplay:10.37,2013-02-10 08:38:00,
2013-02-10 10:41:00,61.0,35.2,29.59,SW,225,3.5,3.5,38,0.00,CLR,,0.00,WeatherDisplay:10.37,2013-02-10 08:41:00,
2013-02-10 10:42:00,61.0,35.2,29.59,South,180,4.6,4.6,38,0.00,CLR,,0.00,WeatherDisplay:10.37,2013-02-10 08:42:00,
2013-02-10 10:43:00,60.6,34.9,29.59,SW,225,4.6,4.6,38,0.00,CLR,,0.00,WeatherDisplay:10.37,2013-02-10 08:43:00,
2013-02-10 10:46:00,60.6,34.9,29.59,SSW,202,3.5,3.5,38,0.00,CLR,,0.00,WeatherDisplay:10.37,2013-02-10 08:46:00,
2013-02-10 10:47:00,60.6,34.9,29.59,SSW,202,3.5,3.5,38,0.00,CLR,,0.00,WeatherDisplay:10.37,2013-02-10 08:47:00,
2013-02-10 10:48:00,61.0,35.2,29.59,SSW,202,3.5,3.5,38,0.00,CLR,,0.00,WeatherDisplay:10.37,2013-02-10 08:48:00,
2013-02-10 10:51:00,61.2,34.7,29.59,WSW,248,3.5,3.6,37,0.00,CLR,,0.00,WeatherDisplay:10.37,2013-02-10 08:51:00,
2013-02-10 10:52:00,61.2,34.7,29.59,WSW,248,4.7,4.7,37,0.00,CLR,,0.00,WeatherDisplay:10.37,2013-02-10 08:52:00,
2013-02-10 10:53:00,60.6,34.2,29.59,SW,225,4.6,4.6,37,0.00,CLR,,0.00,WeatherDisplay:10.37,2013-02-10 08:53:00,
2013-02-10 10:57:00,60.3,33.9,29.59,SW,225,4.6,4.6,37,0.00,CLR,,0.00,WeatherDisplay:10.37,2013-02-10 08:57:00,
2013-02-10 10:58:00,60.4,34.0,29.59,WSW,248,6.9,6.9,37,0.00,CLR,,0.00,WeatherDisplay:10.37,2013-02-10 08:58:00,
2013-02-10 10:59:00,60.3,33.9,29.59,WSW,248,6.9,6.9,37,0.00,CLR,,0.00,WeatherDisplay:10.37,2013-02-10 08:59:00,
2013-02-10 11:02:00,60.3,33.9,29.59,WSW,248,5.4,5.4,37,0.00,CLR,,0.00,WeatherDisplay:10.37,2013-02-10 09:02:00,
2013-02-10 11:03:00,60.3,33.9,29.59,SW,225,6.9,6.9,37,0.00,CLR,,0.00,WeatherDisplay:10.37,2013-02-10 09:03:00,
2013-02-10 11:04:00,60.3,34.5,29.59,WSW,248,6.9,6.9,38,0.00,CLR,,0.00,WeatherDisplay:10.37,2013-02-10 09:04:00,
2013-02-10 11:07:00,60.4,34.7,29.59,WSW,248,4.6,4.6,38,0.00,CLR,,0.00,WeatherDisplay:10.37,2013-02-10 09:07:00,
2013-02-10 11:08:00,60.4,34.7,29.59,SSW,202,4.6,4.6,38,0.00,CLR,,0.00,WeatherDisplay:10.37,2013-02-10 09:08:00,
2013-02-10 11:09:00,60.4,34.7,29.59,WSW,248,5.8,5.8,38,0.00,CLR,,0.00,WeatherDisplay:10.37,2013-02-10 09:09:00,
2013-02-10 11:12:00,60.1,33.7,29.59,WSW,248,4.6,4.6,37,0.00,CLR,,0.00,WeatherDisplay:10.37,2013-02-10 09:12:00,
2013-02-10 11:13:00,59.9,34.2,29.59,SW,225,2.4,2.4,38,0.00,CLR,,0.00,WeatherDisplay:10.37,2013-02-10 09:13:00,
2013-02-10 11:14:00,60.1,34.4,29.59,SSW,202,2.3,2.3,38,0.00,CLR,,0.00,WeatherDisplay:10.37,2013-02-10 09:14:00,
2013-02-10 11:17:00,60.8,35.0,29.62,WSW,248,3.5,3.5,38,0.00,CLR,,0.00,WeatherDisplay:10.37,2013-02-10 09:17:00,
2013-02-10 11:18:00,60.6,34.2,29.62,SW,225,4.6,4.6,37,0.00,CLR,,0.00,WeatherDisplay:10.37,2013-02-10 09:18:00,
2013-02-10 11:19:00,61.0,33.8,29.62,SSW,202,4.6,4.6,36,0.00,CLR,,0.00,WeatherDisplay:10.37,2013-02-10 09:19:00,
2013-02-10 11:22:00,60.3,33.2,29.62,WSW,248,4.6,4.6,36,0.00,CLR,,0.00,WeatherDisplay:10.37,2013-02-10 09:22:00,
2013-02-10 11:23:00,60.3,33.2,29.62,WSW,248,3.5,3.5,36,0.00,CLR,,0.00,WeatherDisplay:10.37,2013-02-10 09:23:00,
2013-02-10 11:24:00,60.3,33.2,29.62,WSW,248,1.1,1.1,36,0.00,CLR,,0.00,WeatherDisplay:10.37,2013-02-10 09:24:00,
2013-02-10 11:27:00,62.4,35.8,29.62,WSW,248,2.3,2.3,37,0.00,CLR,,0.00,WeatherDisplay:10.37,2013-02-10 09:27:00,
2013-02-10 11:28:00,62.2,35.6,29.62,SW,225,4.0,4.0,37,0.00,CLR,,0.00,WeatherDisplay:10.37,2013-02-10 09:28:00,
2013-02-10 11:29:00,61.9,34.6,29.62,WSW,248,4.6,4.6,36,0.00,CLR,,0.00,WeatherDisplay:10.37,2013-02-10 09:29:00,
2013-02-10 11:32:00,62.1,34.8,29.62,WSW,248,4.6,4.6,36,0.00,CLR,,0.00,WeatherDisplay:10.37,2013-02-10 09:32:00,
2013-02-10 11:33:00,62.1,34.8,29.62,West,270,4.6,4.6,36,0.00,CLR,,0.00,WeatherDisplay:10.37,2013-02-10 09:33:00,
2013-02-10 11:34:00,62.1,34.8,29.62,West,270,3.5,3.6,36,0.00,CLR,,0.00,WeatherDisplay:10.37,2013-02-10 09:34:00,
2013-02-10 11:37:00,61.0,33.1,29.62,WNW,292,8.1,8.1,35,0.00,CLR,,0.00,WeatherDisplay:10.37,2013-02-10 09:37:00,
2013-02-10 11:38:00,61.0,33.1,29.62,WSW,248,2.9,2.9,35,0.00,CLR,,0.00,WeatherDisplay:10.37,2013-02-10 09:38:00,
2013-02-10 11:39:00,61.0,33.1,29.62,WSW,248,2.9,2.9,35,0.00,CLR,,0.00,WeatherDisplay:10.37,2013-02-10 09:39:00,
2013-02-10 11:42:00,60.8,33.0,29.62,WSW,248,6.9,6.9,35,0.00,CLR,,0.00,WeatherDisplay:10.37,2013-02-10 09:42:00,
2013-02-10 11:44:00,61.2,33.3,29.62,WNW,292,4.6,4.6,35,0.00,CLR,,0.00,WeatherDisplay:10.37,2013-02-10 09:44:00,
2013-02-10 11:47:00,62.2,34.2,29.62,SW,225,5.8,5.8,35,0.00,CLR,,0.00,WeatherDisplay:10.37,2013-02-10 09:47:00,
2013-02-10 11:49:00,61.7,33.7,29.62,WSW,248,5.8,5.8,35,0.00,CLR,,0.00,WeatherDisplay:10.37,2013-02-10 09:49:00,
2013-02-10 11:52:00,62.4,34.4,29.62,WNW,292,3.5,3.5,35,0.00,CLR,,0.00,WeatherDisplay:10.37,2013-02-10 09:52:00,
2013-02-10 11:54:00,61.9,33.9,29.62,WSW,248,8.1,8.1,35,0.00,CLR,,0.00,WeatherDisplay:10.37,2013-02-10 09:54:00,
2013-02-10 11:58:00,59.9,32.2,29.62,WSW,248,6.9,6.9,35,0.00,CLR,,0.00,WeatherDisplay:10.37,2013-02-10 09:58:00,
2013-02-10 11:59:00,59.5,31.8,29.62,WSW,248,4.6,4.6,35,0.00,CLR,,0.00,WeatherDisplay:10.37,2013-02-10 09:59:00,
2013-02-10 12:00:00,59.5,31.8,29.62,WSW,248,4.6,4.6,35,0.00,CLR,,0.00,WeatherDisplay:10.37,2013-02-10 10:00:00,
2013-02-10 12:03:00,60.3,33.2,29.62,SSW,202,3.8,3.8,36,0.00,CLR,,0.00,WeatherDisplay:10.37,2013-02-10 10:03:00,
2013-02-10 12:04:00,60.1,33.0,29.62,WSW,248,4.7,4.7,36,0.00,CLR,,0.00,WeatherDisplay:10.37,2013-02-10 10:04:00,
2013-02-10 12:05:00,59.9,32.9,29.62,WSW,248,5.9,5.9,36,0.00,CLR,,0.00,WeatherDisplay:10.37,2013-02-10 10:05:00,
2013-02-10 12:08:00,60.3,33.2,29.62,WSW,248,5.8,5.8,36,0.00,CLR,,0.00,WeatherDisplay:10.37,2013-02-10 10:08:00,
2013-02-10 12:09:00,60.6,33.5,29.62,WSW,248,8.1,8.1,36,0.00,CLR,,0.00,WeatherDisplay:10.37,2013-02-10 10:09:00,
2013-02-10 12:10:00,60.6,33.5,29.62,WSW,244,5.0,8.0,36,0.00,CLR,,0.00,WeatherDisplay:10.37,2013-02-10 10:10:00,
2013-02-10 12:13:00,60.6,33.5,29.62,SW,225,8.1,8.1,36,0.00,CLR,,0.00,WeatherDisplay:10.37,2013-02-10 10:13:00,
2013-02-10 12:14:00,60.4,33.3,29.62,WNW,292,5.8,5.9,36,0.00,CLR,,0.00,WeatherDisplay:10.37,2013-02-10 10:14:00,
2013-02-10 12:15:00,60.4,33.3,29.62,WNW,292,8.1,8.1,36,0.00,CLR,,0.00,WeatherDisplay:10.37,2013-02-10 10:15:00,
2013-02-10 12:18:00,60.6,33.5,29.59,WSW,248,5.8,5.8,36,0.00,CLR,,0.00,WeatherDisplay:10.37,2013-02-10 10:18:00,
2013-02-10 12:20:00,60.8,33.7,29.59,WSW,248,4.6,4.6,36,0.00,CLR,,0.00,WeatherDisplay:10.37,2013-02-10 10:20:00,
2013-02-10 12:21:00,60.8,33.7,29.59,WSW,248,6.9,6.9,36,0.00,CLR,,0.00,WeatherDisplay:10.37,2013-02-10 10:21:00,
2013-02-10 12:23:00,60.4,33.3,29.59,SSW,202,4.6,4.6,36,0.00,CLR,,0.00,WeatherDisplay:10.37,2013-02-10 10:23:00,
2013-02-10 12:25:00,60.6,33.5,29.59,WSW,248,4.6,4.6,36,0.00,CLR,,0.00,WeatherDisplay:10.37,2013-02-10 10:25:00,
2013-02-10 12:26:00,61.3,34.1,29.59,WSW,248,3.6,0.0,36,0.00,CLR,,0.00,WeatherDisplay:10.37,2013-02-10 10:26:00,
2013-02-10 12:28:00,61.0,33.8,29.59,WSW,248,5.9,5.9,36,0.00,CLR,,0.00,WeatherDisplay:10.37,2013-02-10 10:28:00,
2013-02-10 12:30:00,60.6,33.5,29.59,WSW,248,6.2,6.2,36,0.00,CLR,,0.00,WeatherDisplay:10.37,2013-02-10 10:30:00,
2013-02-10 12:31:00,60.3,33.2,29.59,West,270,5.8,5.8,36,0.00,CLR,,0.00,WeatherDisplay:10.37,2013-02-10 10:31:00,
2013-02-10 12:33:00,60.1,33.0,29.59,WNW,292,3.5,3.5,36,0.00,CLR,,0.00,WeatherDisplay:10.37,2013-02-10 10:33:00,
2013-02-10 12:35:00,60.6,33.5,29.59,West,270,5.6,5.6,36,0.00,CLR,,0.00,WeatherDisplay:10.37,2013-02-10 10:35:00,
2013-02-10 12:36:00,60.6,33.5,29.59,WSW,248,5.8,5.8,36,0.00,CLR,,0.00,WeatherDisplay:10.37,2013-02-10 10:36:00,
2013-02-10 12:38:00,61.0,33.8,29.59,West,270,3.5,3.5,36,0.00,CLR,,0.00,WeatherDisplay:10.37,2013-02-10 10:38:00,
2013-02-10 12:40:00,61.9,34.6,29.59,WSW,248,3.8,3.8,36,0.00,CLR,,0.00,WeatherDisplay:10.37,2013-02-10 10:40:00,
2013-02-10 12:41:00,61.7,34.5,29.59,WNW,292,5.8,5.8,36,0.00,CLR,,0.00,WeatherDisplay:10.37,2013-02-10 10:41:00,
2013-02-10 12:44:00,61.2,34.0,29.59,West,270,4.0,4.0,36,0.00,CLR,,0.00,WeatherDisplay:10.37,2013-02-10 10:44:00,
2013-02-10 12:45:00,60.6,33.5,29.62,WNW,292,4.6,4.7,36,0.00,CLR,,0.00,WeatherDisplay:10.37,2013-02-10 10:45:00,
2013-02-10 12:46:00,61.0,33.8,29.62,WSW,248,5.8,5.8,36,0.00,CLR,,0.00,WeatherDisplay:10.37,2013-02-10 10:46:00,
2013-02-10 12:49:00,61.3,34.1,29.62,WNW,292,3.8,4.3,36,0.00,CLR,,0.00,WeatherDisplay:10.37,2013-02-10 10:49:00,
2013-02-10 12:51:00,61.3,34.1,29.62,WSW,248,5.8,5.8,36,0.00,CLR,,0.00,WeatherDisplay:10.37,2013-02-10 10:51:00,
2013-02-10 12:54:00,61.3,34.1,29.62,WSW,248,3.5,3.6,36,0.00,CLR,,0.00,WeatherDisplay:10.37,2013-02-10 10:54:00,
2013-02-10 12:56:00,60.6,33.5,29.62,West,270,4.6,4.6,36,0.00,CLR,,0.00,WeatherDisplay:10.37,2013-02-10 10:56:00,
2013-02-10 12:57:00,61.0,33.8,29.62,ENE,68,3.5,3.5,36,0.00,CLR,,0.00,WeatherDisplay:10.37,2013-02-10 10:57:00,
2013-02-10 12:59:00,62.1,34.8,29.62,WNW,292,2.9,3.1,36,0.00,CLR,,0.00,WeatherDisplay:10.37,2013-02-10 10:59:00,
2013-02-10 13:01:00,61.9,33.9,29.62,WSW,248,6.4,6.4,35,0.00,CLR,,0.00,WeatherDisplay:10.37,2013-02-10 11:01:00,
2013-02-10 13:02:00,61.3,33.4,29.62,WSW,248,6.9,6.9,35,0.00,CLR,,0.00,WeatherDisplay:10.37,2013-02-10 11:02:00,
2013-02-10 13:04:00,60.8,33.0,29.62,WSW,248,6.0,6.0,35,0.00,CLR,,0.00,WeatherDisplay:10.37,2013-02-10 11:04:00,
2013-02-10 13:06:00,61.0,33.1,29.62,WSW,248,4.6,4.6,35,0.00,CLR,,0.00,WeatherDisplay:10.37,2013-02-10 11:06:00,
2013-02-10 13:07:00,60.6,33.5,29.62,WSW,248,5.8,5.8,36,0.00,CLR,,0.00,WeatherDisplay:10.37,2013-02-10 11:07:00,
2013-02-10 13:09:00,60.8,33.0,29.62,SSW,202,2.3,0.0,35,0.00,CLR,,0.00,WeatherDisplay:10.37,2013-02-10 11:09:00,
2013-02-10 13:11:00,61.5,34.3,29.62,WNW,292,3.5,3.5,36,0.00,CLR,,0.00,WeatherDisplay:10.37,2013-02-10 11:11:00,
2013-02-10 13:12:00,61.5,34.3,29.62,WSW,248,3.5,3.5,36,0.00,CLR,,0.00,WeatherDisplay:10.37,2013-02-10 11:12:00,
2013-02-10 13:13:00,61.2,33.3,29.62,WSW,248,3.5,3.8,35,0.00,CLR,,0.00,WeatherDisplay:10.37,2013-02-10 11:13:00,
2013-02-10 13:14:00,61.0,33.1,29.62,WSW,248,3.5,3.5,35,0.00,CLR,,0.00,WeatherDisplay:10.37,2013-02-10 11:14:00,
2013-02-10 13:17:00,60.4,33.3,29.62,WSW,248,3.5,3.8,36,0.00,CLR,,0.00,WeatherDisplay:10.37,2013-02-10 11:17:00,
2013-02-10 13:18:00,59.9,32.9,29.62,WSW,248,4.6,4.6,36,0.00,CLR,,0.00,WeatherDisplay:10.37,2013-02-10 11:18:00,
2013-02-10 13:20:00,60.3,33.2,29.62,WSW,248,4.6,4.6,36,0.00,CLR,,0.00,WeatherDisplay:10.37,2013-02-10 11:20:00,
2013-02-10 13:22:00,60.6,33.5,29.62,WSW,248,3.8,3.8,36,0.00,CLR,,0.00,WeatherDisplay:10.37,2013-02-10 11:22:00,
2013-02-10 13:23:00,60.8,33.7,29.62,WSW,248,4.7,4.7,36,0.00,CLR,,0.00,WeatherDisplay:10.37,2013-02-10 11:23:00,
2013-02-10 13:25:00,61.9,34.6,29.62,WSW,248,4.6,0.0,36,0.00,CLR,,0.00,WeatherDisplay:10.37,2013-02-10 11:25:00,
2013-02-10 13:27:00,62.1,34.8,29.62,WSW,248,5.8,5.8,36,0.00,CLR,,0.00,WeatherDisplay:10.37,2013-02-10 11:27:00,
2013-02-10 13:28:00,61.9,33.9,29.62,SSW,202,5.8,5.8,35,0.00,CLR,,0.00,WeatherDisplay:10.37,2013-02-10 11:28:00,
2013-02-10 13:30:00,62.1,34.1,29.62,West,270,5.4,5.4,35,0.00,CLR,,0.00,WeatherDisplay:10.37,2013-02-10 11:30:00,
2013-02-10 13:32:00,62.2,34.2,29.62,WSW,248,3.5,3.5,35,0.00,CLR,,0.00,WeatherDisplay:10.37,2013-02-10 11:32:00,
2013-02-10 13:33:00,61.9,33.9,29.62,West,270,6.4,6.4,35,0.00,CLR,,0.00,WeatherDisplay:10.37,2013-02-10 11:33:00,
2013-02-10 13:35:00,61.5,33.6,29.62,SSW,202,4.6,4.6,35,0.00,CLR,,0.00,WeatherDisplay:10.37,2013-02-10 11:35:00,
2013-02-10 13:37:00,61.5,33.6,29.62,SW,225,3.5,3.5,35,0.00,CLR,,0.00,WeatherDisplay:10.37,2013-02-10 11:37:00,
2013-02-10 13:38:00,62.2,34.2,29.62,WSW,248,4.7,4.7,35,0.00,CLR,,0.00,WeatherDisplay:10.37,2013-02-10 11:38:00,
2013-02-10 13:41:00,61.9,33.9,29.62,SW,225,4.7,4.7,35,0.00,CLR,,0.00,WeatherDisplay:10.37,2013-02-10 11:41:00,
2013-02-10 13:42:00,61.9,33.9,29.62,West,270,4.6,4.6,35,0.00,CLR,,0.00,WeatherDisplay:10.37,2013-02-10 11:42:00,
2013-02-10 13:44:00,62.2,34.2,29.62,West,270,3.5,3.8,35,0.00,CLR,,0.00,WeatherDisplay:10.37,2013-02-10 11:44:00,
2013-02-10 13:46:00,62.1,34.1,29.62,West,270,4.6,4.6,35,0.00,CLR,,0.00,WeatherDisplay:10.37,2013-02-10 11:46:00,
2013-02-10 13:47:00,61.9,33.9,29.62,WSW,248,6.0,6.0,35,0.00,CLR,,0.00,WeatherDisplay:10.37,2013-02-10 11:47:00,
2013-02-10 13:48:00,61.9,33.9,29.62,WSW,248,6.2,6.2,35,0.00,CLR,,0.00,WeatherDisplay:10.37,2013-02-10 11:48:00,
2013-02-10 13:49:00,61.7,33.7,29.62,WSW,248,5.8,5.8,35,0.00,CLR,,0.00,WeatherDisplay:10.37,2013-02-10 11:49:00,
2013-02-10 13:51:00,61.9,33.9,29.62,WSW,248,6.4,6.4,35,0.00,CLR,,0.00,WeatherDisplay:10.37,2013-02-10 11:51:00,
2013-02-10 13:52:00,61.2,33.3,29.62,WSW,248,6.9,6.9,35,0.00,CLR,,0.00,WeatherDisplay:10.37,2013-02-10 11:52:00,
2013-02-10 13:53:00,61.2,33.3,29.62,WSW,248,5.8,5.8,35,0.00,CLR,,0.00,WeatherDisplay:10.37,2013-02-10 11:53:00,
2013-02-10 13:54:00,61.2,33.3,29.62,West,270,6.9,6.9,35,0.00,CLR,,0.00,WeatherDisplay:10.37,2013-02-10 11:54:00,
2013-02-10 13:56:00,60.4,32.6,29.62,SW,225,5.8,5.8,35,0.00,CLR,,0.00,WeatherDisplay:10.37,2013-02-10 11:56:00,
2013-02-10 13:57:00,60.4,32.6,29.62,WSW,248,4.6,4.6,35,0.00,CLR,,0.00,WeatherDisplay:10.37,2013-02-10 11:57:00,
2013-02-10 13:58:00,60.4,32.6,29.62,West,270,6.0,6.0,35,0.00,CLR,,0.00,WeatherDisplay:10.37,2013-02-10 11:58:00,
2013-02-10 13:59:00,60.4,33.3,29.62,WSW,248,5.8,5.8,36,0.00,CLR,,0.00,WeatherDisplay:10.37,2013-02-10 11:59:00,
2013-02-10 14:01:00,60.4,33.3,29.59,SW,225,4.6,4.6,36,0.00,CLR,,0.00,WeatherDisplay:10.37,2013-02-10 12:01:00,
2013-02-10 14:02:00,60.6,33.5,29.59,WSW,248,4.0,4.0,36,0.00,CLR,,0.00,WeatherDisplay:10.37,2013-02-10 12:02:00,
2013-02-10 14:03:00,60.4,33.3,29.59,WSW,248,5.9,5.9,36,0.00,CLR,,0.00,WeatherDisplay:10.37,2013-02-10 12:03:00,
2013-02-10 14:04:00,60.4,33.3,29.59,WNW,292,5.8,5.8,36,0.00,CLR,,0.00,WeatherDisplay:10.37,2013-02-10 12:04:00,
2013-02-10 14:06:00,60.4,33.3,29.59,WSW,248,4.6,4.6,36,0.00,CLR,,0.00,WeatherDisplay:10.37,2013-02-10 12:06:00,
2013-02-10 14:07:00,60.1,33.0,29.59,WSW,248,5.6,5.6,36,0.00,CLR,,0.00,WeatherDisplay:10.37,2013-02-10 12:07:00,
2013-02-10 14:08:00,60.1,33.0,29.59,WSW,248,5.8,5.8,36,0.00,CLR,,0.00,WeatherDisplay:10.37,2013-02-10 12:08:00,
2013-02-10 14:09:00,59.9,32.9,29.59,SSW,202,4.6,4.6,36,0.00,CLR,,0.00,WeatherDisplay:10.37,2013-02-10 12:09:00,
2013-02-10 14:11:00,60.1,33.0,29.59,SW,225,3.5,3.5,36,0.00,CLR,,0.00,WeatherDisplay:10.37,2013-02-10 12:11:00,
2013-02-10 14:12:00,60.4,33.3,29.59,SW,225,3.5,3.5,36,0.00,CLR,,0.00,WeatherDisplay:10.37,2013-02-10 12:12:00,
2013-02-10 14:13:00,60.4,33.3,29.59,WNW,292,2.3,2.4,36,0.00,CLR,,0.00,WeatherDisplay:10.37,2013-02-10 12:13:00,
2013-02-10 14:14:00,60.6,33.5,29.59,WSW,248,3.5,3.5,36,0.00,CLR,,0.00,WeatherDisplay:10.37,2013-02-10 12:14:00,
2013-02-10 14:16:00,60.6,33.5,29.59,WSW,248,5.8,5.8,36,0.00,CLR,,0.00,WeatherDisplay:10.37,2013-02-10 12:16:00,
2013-02-10 14:17:00,60.8,33.7,29.59,WSW,248,5.8,5.8,36,0.00,CLR,,0.00,WeatherDisplay:10.37,2013-02-10 12:17:00,
2013-02-10 14:18:00,60.6,33.5,29.59,West,270,6.9,6.9,36,0.00,CLR,,0.00,WeatherDisplay:10.37,2013-02-10 12:18:00,
2013-02-10 14:19:00,60.6,33.5,29.59,WSW,248,6.9,6.9,36,0.00,CLR,,0.00,WeatherDisplay:10.37,2013-02-10 12:19:00,
2013-02-10 14:21:00,61.0,33.1,29.59,WSW,248,4.6,4.6,35,0.00,CLR,,0.00,WeatherDisplay:10.37,2013-02-10 12:21:00,
2013-02-10 14:22:00,61.5,33.6,29.59,South,180,5.8,5.8,35,0.00,CLR,,0.00,WeatherDisplay:10.37,2013-02-10 12:22:00,
2013-02-10 14:23:00,61.7,33.7,29.59,South,180,8.1,8.1,35,0.00,CLR,,0.00,WeatherDisplay:10.37,2013-02-10 12:23:00,
2013-02-10 14:24:00,61.7,33.7,29.59,South,180,8.1,8.1,35,0.00,CLR,,0.00,WeatherDisplay:10.37,2013-02-10 12:24:00,
2013-02-10 14:26:00,61.5,33.6,29.59,SSW,202,4.6,4.6,35,0.00,CLR,,0.00,WeatherDisplay:10.37,2013-02-10 12:26:00,
2013-02-10 14:28:00,61.7,33.7,29.59,SW,225,3.5,3.8,35,0.00,CLR,,0.00,WeatherDisplay:10.37,2013-02-10 12:28:00,
2013-02-10 14:29:00,61.7,33.7,29.59,SSW,202,6.9,6.9,35,0.00,CLR,,0.00,WeatherDisplay:10.37,2013-02-10 12:29:00,
2013-02-10 14:31:00,61.7,33.7,29.59,SSW,202,4.6,4.6,35,0.00,CLR,,0.00,WeatherDisplay:10.37,2013-02-10 12:31:00,
2013-02-10 14:33:00,61.7,33.7,29.59,South,180,3.5,3.5,35,0.00,CLR,,0.00,WeatherDisplay:10.37,2013-02-10 12:33:00,
2013-02-10 14:34:00,61.7,33.7,29.59,SSW,202,3.5,3.5,35,0.00,CLR,,0.00,WeatherDisplay:10.37,2013-02-10 12:34:00,
2013-02-10 14:36:00,62.4,34.4,29.59,WSW,248,2.3,2.4,35,0.00,CLR,,0.00,WeatherDisplay:10.37,2013-02-10 12:36:00,
2013-02-10 14:38:00,62.6,34.5,29.59,WSW,248,4.9,4.9,35,0.00,CLR,,0.00,WeatherDisplay:10.37,2013-02-10 12:38:00,
2013-02-10 14:39:00,62.4,34.4,29.59,WSW,248,4.6,4.6,35,0.00,CLR,,0.00,WeatherDisplay:10.37,2013-02-10 12:39:00,
2013-02-10 14:40:00,62.2,34.2,29.59,WSW,248,4.6,4.6,35,0.00,CLR,,0.00,WeatherDisplay:10.37,2013-02-10 12:40:00,
2013-02-10 14:42:00,63.0,34.1,29.59,West,270,3.5,0.0,34,0.00,CLR,,0.00,WeatherDisplay:10.37,2013-02-10 12:42:00,
2013-02-10 14:43:00,63.0,34.1,29.59,West,270,4.3,4.3,34,0.00,CLR,,0.00,WeatherDisplay:10.37,2013-02-10 12:43:00,
2013-02-10 14:44:00,62.8,34.0,29.59,NW,315,4.6,4.6,34,0.00,CLR,,0.00,WeatherDisplay:10.37,2013-02-10 12:44:00,
2013-02-10 14:45:00,63.0,34.1,29.59,West,270,4.6,4.6,34,0.00,CLR,,0.00,WeatherDisplay:10.37,2013-02-10 12:45:00,
2013-02-10 14:47:00,63.0,34.1,29.59,WSW,248,3.5,3.5,34,0.00,CLR,,0.00,WeatherDisplay:10.37,2013-02-10 12:47:00,
2013-02-10 14:48:00,62.6,33.8,29.59,SW,225,3.8,3.8,34,0.00,CLR,,0.00,WeatherDisplay:10.37,2013-02-10 12:48:00,
2013-02-10 14:49:00,62.4,34.4,29.59,WSW,248,5.4,5.4,35,0.00,CLR,,0.00,WeatherDisplay:10.37,2013-02-10 12:49:00,
2013-02-10 14:50:00,62.1,31.8,29.59,WNW,292,4.6,4.6,32,0.00,CLR,,0.00,WeatherDisplay:10.37,2013-02-10 12:50:00,
2013-02-10 14:52:00,61.9,31.7,29.59,NW,315,5.8,5.8,32,0.00,CLR,,0.00,WeatherDisplay:10.37,2013-02-10 12:52:00,
2013-02-10 14:53:00,61.9,31.7,29.59,WNW,292,7.4,7.4,32,0.00,CLR,,0.00,WeatherDisplay:10.37,2013-02-10 12:53:00,
2013-02-10 14:55:00,61.3,31.2,29.59,WNW,292,6.9,6.9,32,0.00,CLR,,0.00,WeatherDisplay:10.37,2013-02-10 12:55:00,
2013-02-10 14:57:00,61.7,31.5,29.59,West,270,2.9,2.9,32,0.00,CLR,,0.00,WeatherDisplay:10.37,2013-02-10 12:57:00,
2013-02-10 14:58:00,61.7,33.7,29.59,WSW,248,5.6,5.6,35,0.00,CLR,,0.00,WeatherDisplay:10.37,2013-02-10 12:58:00,
2013-02-10 15:00:00,61.2,33.3,29.59,WSW,248,4.6,4.6,35,0.00,CLR,,0.00,WeatherDisplay:10.37,2013-02-10 13:00:00,
2013-02-10 15:02:00,60.4,32.6,29.59,WSW,248,6.0,6.0,35,0.00,CLR,,0.00,WeatherDisplay:10.37,2013-02-10 13:02:00,
2013-02-10 15:03:00,60.1,32.3,29.59,West,270,5.8,5.8,35,0.00,CLR,,0.00,WeatherDisplay:10.37,2013-02-10 13:03:00,
2013-02-10 15:05:00,60.1,32.3,29.59,WSW,248,5.8,5.8,35,0.00,CLR,,0.00,WeatherDisplay:10.37,2013-02-10 13:05:00,
2013-02-10 15:08:00,60.4,32.6,29.59,South,180,3.5,3.5,35,0.00,CLR,,0.00,WeatherDisplay:10.37,2013-02-10 13:08:00,
2013-02-10 15:10:00,60.1,32.3,29.59,WNW,292,4.6,4.6,35,0.00,CLR,,0.00,WeatherDisplay:10.37,2013-02-10 13:10:00,
2013-02-10 15:13:00,59.4,31.7,29.59,WSW,248,4.6,4.6,35,0.00,CLR,,0.00,WeatherDisplay:10.37,2013-02-10 13:13:00,
2013-02-10 15:15:00,59.2,31.5,29.59,WNW,292,5.8,5.8,35,0.00,CLR,,0.00,WeatherDisplay:10.37,2013-02-10 13:15:00,
2013-02-10 15:18:00,59.0,31.4,29.56,WSW,248,3.5,3.5,35,0.00,CLR,,0.00,WeatherDisplay:10.37,2013-02-10 13:18:00,
2013-02-10 15:19:00,59.0,31.4,29.56,WSW,248,3.5,3.5,35,0.00,CLR,,0.00,WeatherDisplay:10.37,2013-02-10 13:19:00,
2013-02-10 15:20:00,59.2,32.2,29.56,WNW,292,3.3,3.3,36,0.00,CLR,,0.00,WeatherDisplay:10.37,2013-02-10 13:20:00,
2013-02-10 15:23:00,59.0,32.1,29.56,NW,315,4.6,4.6,36,0.00,CLR,,0.00,WeatherDisplay:10.37,2013-02-10 13:23:00,
2013-02-10 15:24:00,59.0,32.1,29.56,NW,315,4.6,4.6,36,0.00,CLR,,0.00,WeatherDisplay:10.37,2013-02-10 13:24:00,
2013-02-10 15:25:00,59.0,32.1,29.56,NNW,338,3.6,3.6,36,0.00,CLR,,0.00,WeatherDisplay:10.37,2013-02-10 13:25:00,
2013-02-10 15:28:00,59.7,32.7,29.56,WNW,292,4.6,4.6,36,0.00,CLR,,0.00,WeatherDisplay:10.37,2013-02-10 13:28:00,
2013-02-10 15:29:00,59.7,32.7,29.56,WNW,292,2.3,2.3,36,0.00,CLR,,0.00,WeatherDisplay:10.37,2013-02-10 13:29:00,
2013-02-10 15:30:00,60.1,33.0,29.59,WSW,248,3.5,3.5,36,0.00,CLR,,0.00,WeatherDisplay:10.37,2013-02-10 13:30:00,
2013-02-10 15:31:00,60.1,33.0,29.59,West,270,3.5,3.5,36,0.00,CLR,,0.00,WeatherDisplay:10.37,2013-02-10 13:31:00,
2013-02-10 15:34:00,60.1,33.0,29.59,West,270,4.6,4.6,36,0.00,CLR,,0.00,WeatherDisplay:10.37,2013-02-10 13:34:00,
2013-02-10 15:36:00,60.1,33.0,29.59,NNW,338,4.6,4.6,36,0.00,CLR,,0.00,WeatherDisplay:10.37,2013-02-10 13:36:00,
2013-02-10 15:39:00,60.1,33.0,29.59,WSW,248,4.6,4.6,36,0.00,CLR,,0.00,WeatherDisplay:10.37,2013-02-10 13:39:00,
2013-02-10 15:41:00,59.7,32.7,29.59,WSW,248,3.5,3.5,36,0.00,CLR,,0.00,WeatherDisplay:10.37,2013-02-10 13:41:00,
2013-02-10 15:44:00,59.5,32.5,29.59,WNW,292,3.6,3.6,36,0.00,CLR,,0.00,WeatherDisplay:10.37,2013-02-10 13:44:00,
2013-02-10 15:46:00,59.2,32.2,29.56,NNW,338,4.0,4.0,36,0.00,CLR,,0.00,WeatherDisplay:10.37,2013-02-10 13:46:00,
2013-02-10 15:49:00,59.2,32.2,29.56,WNW,292,5.8,5.8,36,0.00,CLR,,0.00,WeatherDisplay:10.37,2013-02-10 13:49:00,
2013-02-10 15:51:00,59.2,32.2,29.56,WSW,248,4.6,4.6,36,0.00,CLR,,0.00,WeatherDisplay:10.37,2013-02-10 13:51:00,
2013-02-10 15:54:00,58.8,31.9,29.56,South,180,4.6,4.6,36,0.00,CLR,,0.00,WeatherDisplay:10.37,2013-02-10 13:54:00,
2013-02-10 15:55:00,58.8,31.9,29.56,SSW,202,4.6,4.6,36,0.00,CLR,,0.00,WeatherDisplay:10.37,2013-02-10 13:55:00,
2013-02-10 15:56:00,58.8,31.9,29.56,SW,225,3.5,3.5,36,0.00,CLR,,0.00,WeatherDisplay:10.37,2013-02-10 13:56:00,
2013-02-10 15:59:00,58.1,31.3,29.56,WSW,248,5.8,5.8,36,0.00,CLR,,0.00,WeatherDisplay:10.37,2013-02-10 13:59:00,
2013-02-10 16:00:00,58.2,31.3,29.56,SW,224,5.0,7.0,36,0.00,CLR,,0.00,WeatherDisplay:10.37,2013-02-10 14:00:00,
2013-02-10 16:01:00,58.1,31.3,29.56,WSW,248,6.2,6.2,36,0.00,CLR,,0.00,WeatherDisplay:10.37,2013-02-10 14:01:00,
2013-02-10 16:02:00,58.1,31.3,29.56,WSW,248,6.2,6.2,36,0.00,CLR,,0.00,WeatherDisplay:10.37,2013-02-10 14:02:00,
2013-02-10 16:04:00,58.3,31.4,29.56,West,270,4.6,4.6,36,0.00,CLR,,0.00,WeatherDisplay:10.37,2013-02-10 14:04:00,
2013-02-10 16:05:00,58.3,31.4,29.56,WSW,248,3.5,3.5,36,0.00,CLR,,0.00,WeatherDisplay:10.37,2013-02-10 14:05:00,
2013-02-10 16:06:00,58.5,31.6,29.56,WNW,292,4.6,4.6,36,0.00,CLR,,0.00,WeatherDisplay:10.37,2013-02-10 14:06:00,
2013-02-10 16:07:00,58.5,31.6,29.56,WSW,248,4.6,4.6,36,0.00,CLR,,0.00,WeatherDisplay:10.37,2013-02-10 14:07:00,
2013-02-10 16:10:00,58.1,31.3,29.56,WNW,292,5.8,5.8,36,0.00,CLR,,0.00,WeatherDisplay:10.37,2013-02-10 14:10:00,
2013-02-10 16:11:00,58.1,31.3,29.56,WNW,292,4.6,4.6,36,0.00,CLR,,0.00,WeatherDisplay:10.37,2013-02-10 14:11:00,
2013-02-10 16:12:00,57.9,31.1,29.56,NW,315,3.5,3.5,36,0.00,CLR,,0.00,WeatherDisplay:10.37,2013-02-10 14:12:00,
2013-02-10 16:15:00,57.9,31.1,29.56,WNW,288,2.0,5.0,36,0.00,CLR,,0.00,WeatherDisplay:10.37,2013-02-10 14:15:00,
2013-02-10 16:17:00,58.1,31.3,29.56,NW,315,2.4,2.4,36,0.00,CLR,,0.00,WeatherDisplay:10.37,2013-02-10 14:17:00,
2013-02-10 16:18:00,58.1,31.3,29.56,NNW,338,4.6,4.6,36,0.00,CLR,,0.00,WeatherDisplay:10.37,2013-02-10 14:18:00,
2013-02-10 16:20:00,58.3,31.4,29.56,NW,315,2.0,5.0,36,0.00,CLR,,0.00,WeatherDisplay:10.37,2013-02-10 14:20:00,
2013-02-10 16:22:00,58.8,31.9,29.56,West,270,3.5,3.5,36,0.00,CLR,,0.00,WeatherDisplay:10.37,2013-02-10 14:22:00,
2013-02-10 16:23:00,59.2,32.2,29.56,West,270,1.1,1.4,36,0.00,CLR,,0.00,WeatherDisplay:10.37,2013-02-10 14:23:00,
2013-02-10 16:25:00,60.1,33.0,29.56,WNW,292,2.3,2.3,36,0.00,CLR,,0.00,WeatherDisplay:10.37,2013-02-10 14:25:00,
2013-02-10 16:27:00,60.1,32.3,29.56,West,270,4.6,4.6,35,0.00,CLR,,0.00,WeatherDisplay:10.37,2013-02-10 14:27:00,
2013-02-10 16:28:00,60.1,32.3,29.56,WNW,292,3.5,3.5,35,0.00,CLR,,0.00,WeatherDisplay:10.37,2013-02-10 14:28:00,
2013-02-10 16:30:00,60.4,32.6,29.56,WNW,292,3.5,3.5,35,0.00,CLR,,0.00,WeatherDisplay:10.37,2013-02-10 14:30:00,
2013-02-10 16:32:00,60.6,32.8,29.56,WSW,248,3.8,3.8,35,0.00,CLR,,0.00,WeatherDisplay:10.37,2013-02-10 14:32:00,
2013-02-10 16:33:00,60.3,32.5,29.56,SW,225,4.6,4.6,35,0.00,CLR,,0.00,WeatherDisplay:10.37,2013-02-10 14:33:00,
2013-02-10 16:35:00,60.4,32.6,29.56,SSW,202,3.5,3.5,35,0.00,CLR,,0.00,WeatherDisplay:10.37,2013-02-10 14:35:00,
2013-02-10 16:37:00,60.8,33.0,29.56,SSW,202,2.3,2.3,35,0.00,CLR,,0.00,WeatherDisplay:10.37,2013-02-10 14:37:00,
2013-02-10 16:38:00,61.0,33.1,29.56,SSW,202,1.1,0.0,35,0.00,CLR,,0.00,WeatherDisplay:10.37,2013-02-10 14:38:00,
2013-02-10 16:40:00,61.7,33.7,29.56,SSW,202,2.0,2.0,35,0.00,CLR,,0.00,WeatherDisplay:10.37,2013-02-10 14:40:00,
2013-02-10 16:42:00,61.7,33.7,29.56,South,180,3.5,3.5,35,0.00,CLR,,0.00,WeatherDisplay:10.37,2013-02-10 14:42:00,
2013-02-10 16:43:00,61.0,33.1,29.56,South,180,3.5,3.5,35,0.00,CLR,,0.00,WeatherDisplay:10.37,2013-02-10 14:43:00,
2013-02-10 16:45:00,60.6,32.8,29.56,WSW,248,5.8,5.8,35,0.00,CLR,,0.00,WeatherDisplay:10.37,2013-02-10 14:45:00,
2013-02-10 16:46:00,60.6,32.8,29.56,WSW,248,5.8,5.8,35,0.00,CLR,,0.00,WeatherDisplay:10.37,2013-02-10 14:46:00,
2013-02-10 16:47:00,60.4,32.6,29.56,SSW,202,5.8,5.8,35,0.00,CLR,,0.00,WeatherDisplay:10.37,2013-02-10 14:47:00,
2013-02-10 16:48:00,60.8,33.0,29.56,WSW,248,2.3,2.4,35,0.00,CLR,,0.00,WeatherDisplay:10.37,2013-02-10 14:48:00,
2013-02-10 16:50:00,61.2,33.3,29.56,WSW,248,2.3,2.3,35,0.00,CLR,,0.00,WeatherDisplay:10.37,2013-02-10 14:50:00,
2013-02-10 16:51:00,61.2,33.3,29.56,WSW,248,2.3,2.3,35,0.00,CLR,,0.00,WeatherDisplay:10.37,2013-02-10 14:51:00,
2013-02-10 16:52:00,61.2,33.3,29.56,SSW,202,2.3,2.3,35,0.00,CLR,,0.00,WeatherDisplay:10.37,2013-02-10 14:52:00,
2013-02-10 16:53:00,61.0,33.1,29.56,SSW,202,3.5,3.5,35,0.00,CLR,,0.00,WeatherDisplay:10.37,2013-02-10 14:53:00,
2013-02-10 16:55:00,60.8,33.0,29.56,WSW,248,3.5,3.5,35,0.00,CLR,,0.00,WeatherDisplay:10.37,2013-02-10 14:55:00,
2013-02-10 16:56:00,61.0,33.1,29.56,SW,225,3.5,3.5,35,0.00,CLR,,0.00,WeatherDisplay:10.37,2013-02-10 14:56:00,
2013-02-10 16:57:00,61.0,33.1,29.56,SSW,202,2.3,2.3,35,0.00,CLR,,0.00,WeatherDisplay:10.37,2013-02-10 14:57:00,
2013-02-10 16:58:00,61.0,33.1,29.56,SSW,202,1.4,1.4,35,0.00,CLR,,0.00,WeatherDisplay:10.37,2013-02-10 14:58:00,
2013-02-10 17:00:00,61.0,33.1,29.56,SSW,202,2.3,0.0,35,0.00,CLR,,0.00,WeatherDisplay:10.37,2013-02-10 15:00:00,
2013-02-10 17:01:00,61.0,33.1,29.56,SSW,202,2.9,0.0,35,0.00,CLR,,0.00,WeatherDisplay:10.37,2013-02-10 15:01:00,
2013-02-10 17:02:00,60.8,33.0,29.56,SSW,202,4.3,4.3,35,0.00,CLR,,0.00,WeatherDisplay:10.37,2013-02-10 15:02:00,
2013-02-10 17:03:00,60.4,32.6,29.56,SSW,202,4.6,4.6,35,0.00,CLR,,0.00,WeatherDisplay:10.37,2013-02-10 15:03:00,
2013-02-10 17:05:00,59.2,31.5,29.56,SSW,202,4.6,4.6,35,0.00,CLR,,0.00,WeatherDisplay:10.37,2013-02-10 15:05:00,
2013-02-10 17:06:00,59.2,31.5,29.56,SSW,202,4.6,4.6,35,0.00,CLR,,0.00,WeatherDisplay:10.37,2013-02-10 15:06:00,
2013-02-10 17:08:00,58.3,31.4,29.56,SSW,202,3.5,3.5,36,0.00,CLR,,0.00,WeatherDisplay:10.37,2013-02-10 15:08:00,
2013-02-10 17:10:00,57.6,30.8,29.56,SSW,202,5.8,5.8,36,0.00,CLR,,0.00,WeatherDisplay:10.37,2013-02-10 15:10:00,
2013-02-10 17:11:00,57.4,30.6,29.56,SW,225,3.5,3.5,36,0.00,CLR,,0.00,WeatherDisplay:10.37,2013-02-10 15:11:00,
2013-02-10 17:13:00,57.2,30.5,29.56,SSW,202,3.5,3.5,36,0.00,CLR,,0.00,WeatherDisplay:10.37,2013-02-10 15:13:00,
2013-02-10 17:15:00,57.2,30.5,29.56,SSW,202,2.3,2.3,36,0.00,CLR,,0.00,WeatherDisplay:10.37,2013-02-10 15:15:00,
2013-02-10 17:16:00,57.7,30.9,29.56,SSW,202,2.3,0.0,36,0.00,CLR,,0.00,WeatherDisplay:10.37,2013-02-10 15:16:00,
2013-02-10 17:18:00,57.7,31.6,29.56,SSW,202,3.3,3.3,37,0.00,CLR,,0.00,WeatherDisplay:10.37,2013-02-10 15:18:00,
2013-02-10 17:21:00,57.4,31.3,29.56,South,180,4.5,4.5,37,0.00,CLR,,0.00,WeatherDisplay:10.37,2013-02-10 15:21:00,
2013-02-10 17:23:00,57.6,31.5,29.56,SSW,202,2.3,2.3,37,0.00,CLR,,0.00,WeatherDisplay:10.37,2013-02-10 15:23:00,
2013-02-10 17:26:00,57.9,31.8,29.56,SSW,202,3.5,3.5,37,0.00,CLR,,0.00,WeatherDisplay:10.37,2013-02-10 15:26:00,
2013-02-10 17:28:00,57.0,31.6,29.56,SSW,202,4.3,4.3,38,0.00,CLR,,0.00,WeatherDisplay:10.37,2013-02-10 15:28:00,
2013-02-10 17:31:00,57.0,32.3,29.56,SSW,202,2.6,2.6,39,0.00,CLR,,0.00,WeatherDisplay:10.37,2013-02-10 15:31:00,
2013-02-10 17:33:00,56.5,31.8,29.56,SSW,202,2.3,2.3,39,0.00,CLR,,0.00,WeatherDisplay:10.37,2013-02-10 15:33:00,
2013-02-10 17:36:00,56.5,31.8,29.56,SSW,202,2.3,2.3,39,0.00,CLR,,0.00,WeatherDisplay:10.37,2013-02-10 15:36:00,
2013-02-10 17:38:00,56.1,32.1,29.56,SW,225,2.3,2.3,40,0.00,CLR,,0.00,WeatherDisplay:10.37,2013-02-10 15:38:00,
2013-02-10 17:41:00,55.6,31.6,29.56,WSW,248,3.5,3.5,40,0.00,CLR,,0.00,WeatherDisplay:10.37,2013-02-10 15:41:00,
2013-02-10 17:42:00,55.6,31.6,29.56,WSW,248,3.5,3.5,40,0.00,CLR,,0.00,WeatherDisplay:10.37,2013-02-10 15:42:00,
2013-02-10 17:43:00,55.4,31.5,29.56,WSW,248,2.3,2.3,40,0.00,CLR,,0.00,WeatherDisplay:10.37,2013-02-10 15:43:00,
2013-02-10 17:46:00,55.0,32.3,29.56,SSW,202,2.3,2.3,42,0.00,CLR,,0.00,WeatherDisplay:10.37,2013-02-10 15:46:00,
2013-02-10 17:47:00,55.0,32.9,29.56,SSW,202,2.3,2.3,43,0.00,CLR,,0.00,WeatherDisplay:10.37,2013-02-10 15:47:00,
2013-02-10 17:48:00,54.9,33.3,29.56,SSW,202,2.3,2.3,44,0.00,CLR,,0.00,WeatherDisplay:10.37,2013-02-10 15:48:00,
2013-02-10 17:49:00,54.9,33.3,29.56,SSW,202,2.3,2.3,44,0.00,CLR,,0.00,WeatherDisplay:10.37,2013-02-10 15:49:00,
2013-02-10 17:51:00,54.7,33.2,29.56,SSW,202,2.3,2.3,44,0.00,CLR,,0.00,WeatherDisplay:10.37,2013-02-10 15:51:00,
2013-02-10 17:52:00,54.7,33.2,29.56,SSW,202,2.3,2.3,44,0.00,CLR,,0.00,WeatherDisplay:10.37,2013-02-10 15:52:00,
2013-02-10 17:53:00,54.5,33.0,29.56,WSW,248,3.1,3.1,44,0.00,CLR,,0.00,WeatherDisplay:10.37,2013-02-10 15:53:00,
2013-02-10 17:54:00,54.5,33.0,29.56,WSW,248,3.1,3.1,44,0.00,CLR,,0.00,WeatherDisplay:10.37,2013-02-10 15:54:00,
2013-02-10 17:56:00,54.3,34.5,29.56,West,270,4.7,4.7,47,0.00,CLR,,0.00,WeatherDisplay:10.37,2013-02-10 15:56:00,
2013-02-10 17:57:00,54.3,34.5,29.56,SW,225,4.6,4.6,47,0.00,CLR,,0.00,WeatherDisplay:10.37,2013-02-10 15:57:00,
2013-02-10 17:58:00,54.1,34.3,29.56,WNW,292,2.3,3.1,47,0.00,CLR,,0.00,WeatherDisplay:10.37,2013-02-10 15:58:00,
2013-02-10 17:59:00,54.1,34.3,29.56,West,270,4.6,4.6,47,0.00,CLR,,0.00,WeatherDisplay:10.37,2013-02-10 15:59:00,
2013-02-10 18:01:00,54.0,34.7,29.56,WSW,248,3.5,3.5,48,0.00,CLR,,0.00,WeatherDisplay:10.37,2013-02-10 16:01:00,
2013-02-10 18:02:00,53.8,34.5,29.56,West,270,3.5,3.5,48,0.00,CLR,,0.00,WeatherDisplay:10.37,2013-02-10 16:02:00,
2013-02-10 18:03:00,53.8,34.5,29.56,WSW,248,5.4,5.4,48,0.00,CLR,,0.00,WeatherDisplay:10.37,2013-02-10 16:03:00,
2013-02-10 18:04:00,53.6,34.9,29.56,WSW,248,8.1,8.1,49,0.00,CLR,,0.00,WeatherDisplay:10.37,2013-02-10 16:04:00,
2013-02-10 18:06:00,53.6,34.4,29.56,WSW,248,3.5,3.5,48,0.00,CLR,,0.00,WeatherDisplay:10.37,2013-02-10 16:06:00,
2013-02-10 18:07:00,53.4,34.7,29.56,WSW,248,3.6,3.6,49,0.00,CLR,,0.00,WeatherDisplay:10.37,2013-02-10 16:07:00,
2013-02-10 18:09:00,53.4,35.2,29.56,West,270,4.3,4.3,50,0.00,CLR,,0.00,WeatherDisplay:10.37,2013-02-10 16:09:00,
2013-02-10 18:11:00,53.2,35.1,29.56,SW,225,4.6,4.6,50,0.00,CLR,,0.00,WeatherDisplay:10.37,2013-02-10 16:11:00,
2013-02-10 18:12:00,53.2,35.1,29.56,WSW,248,5.8,5.8,50,0.00,CLR,,0.00,WeatherDisplay:10.37,2013-02-10 16:12:00,
2013-02-10 18:14:00,53.1,34.9,29.56,WNW,292,3.5,3.5,50,0.00,CLR,,0.00,WeatherDisplay:10.37,2013-02-10 16:14:00,
2013-02-10 18:16:00,53.1,34.9,29.56,WNW,292,3.5,3.5,50,0.00,CLR,,0.00,WeatherDisplay:10.37,2013-02-10 16:16:00,
2013-02-10 18:17:00,53.1,34.9,29.56,West,270,3.5,3.5,50,0.00,CLR,,0.00,WeatherDisplay:10.37,2013-02-10 16:17:00,
2013-02-10 18:19:00,53.1,34.9,29.56,WSW,248,4.6,4.7,50,0.00,CLR,,0.00,WeatherDisplay:10.37,2013-02-10 16:19:00,
2013-02-10 18:21:00,52.9,34.7,29.56,West,270,5.8,5.8,50,0.00,CLR,,0.00,WeatherDisplay:10.37,2013-02-10 16:21:00,
2013-02-10 18:23:00,52.9,35.2,29.56,West,270,6.9,6.9,51,0.00,CLR,,0.00,WeatherDisplay:10.37,2013-02-10 16:23:00,
2013-02-10 18:24:00,52.9,35.2,29.56,WSW,248,5.8,5.8,51,0.00,CLR,,0.00,WeatherDisplay:10.37,2013-02-10 16:24:00,
2013-02-10 18:27:00,52.9,35.7,29.56,WSW,248,8.1,8.1,52,0.00,CLR,,0.00,WeatherDisplay:10.37,2013-02-10 16:27:00,
2013-02-10 18:28:00,52.7,35.6,29.56,WNW,292,5.8,5.8,52,0.00,CLR,,0.00,WeatherDisplay:10.37,2013-02-10 16:28:00,
2013-02-10 18:29:00,52.7,35.6,29.56,WNW,292,5.8,5.8,52,0.00,CLR,,0.00,WeatherDisplay:10.37,2013-02-10 16:29:00,
2013-02-10 18:32:00,52.7,35.6,29.56,West,270,4.0,4.0,52,0.00,CLR,,0.00,WeatherDisplay:10.37,2013-02-10 16:32:00,
2013-02-10 18:33:00,52.7,35.6,29.56,WNW,292,4.7,4.7,52,0.00,CLR,,0.00,WeatherDisplay:10.37,2013-02-10 16:33:00,
2013-02-10 18:34:00,52.5,35.4,29.56,West,270,4.6,4.6,52,0.00,CLR,,0.00,WeatherDisplay:10.37,2013-02-10 16:34:00,
2013-02-10 18:37:00,52.5,35.4,29.56,WNW,292,3.8,3.8,52,0.00,CLR,,0.00,WeatherDisplay:10.37,2013-02-10 16:37:00,
2013-02-10 18:38:00,52.5,35.4,29.56,West,270,3.5,3.5,52,0.00,CLR,,0.00,WeatherDisplay:10.37,2013-02-10 16:38:00,
2013-02-10 18:39:00,52.5,35.4,29.56,WNW,292,4.6,4.6,52,0.00,CLR,,0.00,WeatherDisplay:10.37,2013-02-10 16:39:00,
2013-02-10 18:40:00,52.5,35.4,29.56,WNW,292,4.6,4.6,52,0.00,CLR,,0.00,WeatherDisplay:10.37,2013-02-10 16:40:00,
2013-02-10 18:42:00,52.3,35.2,29.56,West,270,2.3,2.3,52,0.00,CLR,,0.00,WeatherDisplay:10.37,2013-02-10 16:42:00,
2013-02-10 18:43:00,52.3,35.2,29.56,West,270,2.3,2.3,52,0.00,CLR,,0.00,WeatherDisplay:10.37,2013-02-10 16:43:00,
2013-02-10 18:45:00,52.3,35.2,29.56,WNW,292,3.5,3.5,52,0.00,CLR,,0.00,WeatherDisplay:10.37,2013-02-10 16:45:00,
2013-02-10 18:47:00,52.3,35.7,29.56,WNW,292,4.6,4.6,53,0.00,CLR,,0.00,WeatherDisplay:10.37,2013-02-10 16:47:00,
2013-02-10 18:48:00,52.3,35.2,29.56,WNW,292,4.6,4.6,52,0.00,CLR,,0.00,WeatherDisplay:10.37,2013-02-10 16:48:00,
2013-02-10 18:50:00,52.3,35.7,29.56,WNW,292,3.5,3.5,53,0.00,CLR,,0.00,WeatherDisplay:10.37,2013-02-10 16:50:00,
2013-02-10 18:52:00,52.3,35.2,29.56,WNW,292,3.5,3.5,52,0.00,CLR,,0.00,WeatherDisplay:10.37,2013-02-10 16:52:00,
2013-02-10 18:53:00,52.3,35.7,29.56,West,270,3.5,3.5,53,0.00,CLR,,0.00,WeatherDisplay:10.37,2013-02-10 16:53:00,
2013-02-10 18:55:00,52.3,35.7,29.56,West,270,3.5,3.5,53,0.00,CLR,,0.00,WeatherDisplay:10.37,2013-02-10 16:55:00,
2013-02-10 18:57:00,52.3,35.7,29.56,WSW,248,4.6,4.6,53,0.00,CLR,,0.00,WeatherDisplay:10.37,2013-02-10 16:57:00,
2013-02-10 18:58:00,52.3,35.7,29.56,WNW,292,3.6,3.6,53,0.00,CLR,,0.00,WeatherDisplay:10.37,2013-02-10 16:58:00,
2013-02-10 19:00:00,52.3,35.7,29.56,West,270,3.5,3.5,53,0.00,CLR,,0.00,WeatherDisplay:10.37,2013-02-10 17:00:00,
2013-02-10 19:02:00,52.3,36.2,29.56,WSW,248,4.6,4.6,54,0.00,CLR,,0.00,WeatherDisplay:10.37,2013-02-10 17:02:00,
2013-02-10 19:04:00,52.3,36.2,29.56,WNW,292,3.8,3.8,54,0.00,CLR,,0.00,WeatherDisplay:10.37,2013-02-10 17:04:00,
2013-02-10 19:05:00,52.3,36.6,29.56,WNW,292,4.6,4.6,55,0.00,CLR,,0.00,WeatherDisplay:10.37,2013-02-10 17:05:00,
2013-02-10 19:07:00,52.2,36.0,29.56,WNW,292,2.3,2.3,54,0.00,CLR,,0.00,WeatherDisplay:10.37,2013-02-10 17:07:00,
2013-02-10 19:09:00,52.2,36.0,29.56,WNW,292,3.5,0.0,54,0.00,CLR,,0.00,WeatherDisplay:10.37,2013-02-10 17:09:00,
2013-02-10 19:10:00,52.2,36.0,29.56,WNW,292,3.5,3.5,54,0.00,CLR,,0.00,WeatherDisplay:10.37,2013-02-10 17:10:00,
2013-02-10 19:12:00,52.2,36.0,29.56,NW,315,3.8,3.8,54,0.00,CLR,,0.00,WeatherDisplay:10.37,2013-02-10 17:12:00,
2013-02-10 19:14:00,52.2,36.0,29.56,NW,315,2.3,2.3,54,0.00,CLR,,0.00,WeatherDisplay:10.37,2013-02-10 17:14:00,
2013-02-10 19:15:00,52.2,36.0,29.56,NW,315,3.5,3.5,54,0.00,CLR,,0.00,WeatherDisplay:10.37,2013-02-10 17:15:00,
2013-02-10 19:17:00,52.2,36.0,29.56,WNW,292,2.3,2.3,54,0.00,CLR,,0.00,WeatherDisplay:10.37,2013-02-10 17:17:00,
2013-02-10 19:19:00,52.2,36.0,29.56,WNW,292,4.3,4.3,54,0.00,CLR,,0.00,WeatherDisplay:10.37,2013-02-10 17:19:00,
2013-02-10 19:20:00,52.2,36.0,29.56,WNW,292,4.6,4.6,54,0.00,CLR,,0.00,WeatherDisplay:10.37,2013-02-10 17:20:00,
2013-02-10 19:21:00,52.2,36.0,29.56,WNW,292,4.6,4.6,54,0.00,CLR,,0.00,WeatherDisplay:10.37,2013-02-10 17:21:00,
2013-02-10 19:22:00,52.2,36.0,29.56,WNW,292,4.6,4.6,54,0.00,CLR,,0.00,WeatherDisplay:10.37,2013-02-10 17:22:00,
2013-02-10 19:24:00,52.2,35.5,29.56,WNW,292,4.6,4.6,53,0.00,CLR,,0.00,WeatherDisplay:10.37,2013-02-10 17:24:00,
2013-02-10 19:25:00,52.2,35.5,29.56,West,270,4.6,4.6,53,0.00,CLR,,0.00,WeatherDisplay:10.37,2013-02-10 17:25:00,
2013-02-10 19:26:00,52.2,35.5,29.56,WNW,292,4.6,4.6,53,0.00,CLR,,0.00,WeatherDisplay:10.37,2013-02-10 17:26:00,
2013-02-10 19:27:00,52.3,35.7,29.56,West,270,4.6,4.6,53,0.00,CLR,,0.00,WeatherDisplay:10.37,2013-02-10 17:27:00,
2013-02-10 19:29:00,52.2,35.5,29.56,West,270,2.3,2.3,53,0.00,CLR,,0.00,WeatherDisplay:10.37,2013-02-10 17:29:00,
2013-02-10 19:31:00,52.2,35.5,29.56,West,270,1.1,1.1,53,0.00,CLR,,0.00,WeatherDisplay:10.37,2013-02-10 17:31:00,
2013-02-10 19:33:00,52.3,35.7,29.56,West,270,2.4,2.4,53,0.00,CLR,,0.00,WeatherDisplay:10.37,2013-02-10 17:33:00,
2013-02-10 19:35:00,52.2,35.1,29.56,West,270,3.5,3.5,52,0.00,CLR,,0.00,WeatherDisplay:10.37,2013-02-10 17:35:00,
2013-02-10 19:36:00,52.2,35.1,29.56,West,270,2.4,2.4,52,0.00,CLR,,0.00,WeatherDisplay:10.37,2013-02-10 17:36:00,
2013-02-10 19:38:00,52.2,35.1,29.56,WNW,292,4.6,0.0,52,0.00,CLR,,0.00,WeatherDisplay:10.37,2013-02-10 17:38:00,
2013-02-10 19:40:00,52.2,35.1,29.56,WNW,292,2.3,2.3,52,0.00,CLR,,0.00,WeatherDisplay:10.37,2013-02-10 17:40:00,
2013-02-10 19:41:00,52.0,34.9,29.56,WNW,292,0.0,0.0,52,0.00,CLR,,0.00,WeatherDisplay:10.37,2013-02-10 17:41:00,
2013-02-10 19:43:00,52.0,34.9,29.56,WNW,292,4.6,4.6,52,0.00,CLR,,0.00,WeatherDisplay:10.37,2013-02-10 17:43:00,
2013-02-10 19:45:00,52.0,34.9,29.56,WNW,292,2.3,2.3,52,0.00,CLR,,0.00,WeatherDisplay:10.37,2013-02-10 17:45:00,
2013-02-10 19:46:00,51.8,34.7,29.59,West,270,2.9,2.9,52,0.00,CLR,,0.00,WeatherDisplay:10.37,2013-02-10 17:46:00,
2013-02-10 19:48:00,51.8,34.7,29.59,WNW,292,4.6,4.6,52,0.00,CLR,,0.00,WeatherDisplay:10.37,2013-02-10 17:48:00,
2013-02-10 19:50:00,51.8,34.7,29.59,West,270,2.4,2.4,52,0.00,CLR,,0.00,WeatherDisplay:10.37,2013-02-10 17:50:00,
2013-02-10 19:51:00,51.8,34.7,29.59,West,270,2.4,2.4,52,0.00,CLR,,0.00,WeatherDisplay:10.37,2013-02-10 17:51:00,
2013-02-10 19:53:00,51.6,34.6,29.59,West,270,3.5,3.5,52,0.00,CLR,,0.00,WeatherDisplay:10.37,2013-02-10 17:53:00,
2013-02-10 19:55:00,51.6,34.6,29.59,WNW,292,2.3,2.3,52,0.00,CLR,,0.00,WeatherDisplay:10.37,2013-02-10 17:55:00,
2013-02-10 19:56:00,51.6,34.6,29.59,WNW,292,1.6,1.6,52,0.00,CLR,,0.00,WeatherDisplay:10.37,2013-02-10 17:56:00,
2013-02-10 19:58:00,51.6,34.6,29.59,WNW,292,2.4,0.0,52,0.00,CLR,,0.00,WeatherDisplay:10.37,2013-02-10 17:58:00,
2013-02-10 20:00:00,51.4,34.4,29.56,WNW,292,2.3,0.0,52,0.00,CLR,,0.00,WeatherDisplay:10.37,2013-02-10 18:00:00,
2013-02-10 20:01:00,51.4,34.4,29.56,WNW,292,1.4,0.0,52,0.00,CLR,,0.00,WeatherDisplay:10.37,2013-02-10 18:01:00,
2013-02-10 20:03:00,51.4,34.4,29.56,WNW,292,2.3,2.3,52,0.00,CLR,,0.00,WeatherDisplay:10.37,2013-02-10 18:03:00,
2013-02-10 20:05:00,51.3,34.2,29.56,WNW,292,1.1,0.0,52,0.00,CLR,,0.00,WeatherDisplay:10.37,2013-02-10 18:05:00,
2013-02-10 20:06:00,51.3,34.2,29.56,WNW,292,0.0,0.0,52,0.00,CLR,,0.00,WeatherDisplay:10.37,2013-02-10 18:06:00,
2013-02-10 20:08:00,51.3,34.2,29.56,WNW,292,0.0,0.0,52,0.00,CLR,,0.00,WeatherDisplay:10.37,2013-02-10 18:08:00,
2013-02-10 20:10:00,51.1,34.1,29.56,WNW,292,0.0,0.0,52,0.00,CLR,,0.00,WeatherDisplay:10.37,2013-02-10 18:10:00,
2013-02-10 20:11:00,51.1,34.1,29.56,WNW,292,0.0,0.0,52,0.00,CLR,,0.00,WeatherDisplay:10.37,2013-02-10 18:11:00,
2013-02-10 20:13:00,51.1,34.1,29.56,WNW,292,0.0,0.0,52,0.00,CLR,,0.00,WeatherDisplay:10.37,2013-02-10 18:13:00,
2013-02-10 20:16:00,51.1,34.1,29.56,WNW,292,2.2,2.2,52,0.00,CLR,,0.00,WeatherDisplay:10.37,2013-02-10 18:16:00,
2013-02-10 20:17:00,51.1,34.1,29.56,WNW,292,2.3,2.3,52,0.00,CLR,,0.00,WeatherDisplay:10.37,2013-02-10 18:17:00,
2013-02-10 20:18:00,51.1,34.1,29.56,WNW,292,1.1,1.1,52,0.00,CLR,,0.00,WeatherDisplay:10.37,2013-02-10 18:18:00,
2013-02-10 20:21:00,51.1,34.1,29.56,WNW,292,2.3,2.3,52,0.00,CLR,,0.00,WeatherDisplay:10.37,2013-02-10 18:21:00,
2013-02-10 20:22:00,51.1,34.1,29.56,WNW,292,2.3,2.3,52,0.00,CLR,,0.00,WeatherDisplay:10.37,2013-02-10 18:22:00,
2013-02-10 20:23:00,51.1,34.1,29.56,WNW,292,1.6,1.6,52,0.00,CLR,,0.00,WeatherDisplay:10.37,2013-02-10 18:23:00,
2013-02-10 20:26:00,50.9,33.9,29.56,West,270,1.1,0.0,52,0.00,CLR,,0.00,WeatherDisplay:10.37,2013-02-10 18:26:00,
2013-02-10 20:27:00,50.9,33.9,29.56,West,270,2.9,2.9,52,0.00,CLR,,0.00,WeatherDisplay:10.37,2013-02-10 18:27:00,
2013-02-10 20:28:00,50.9,33.9,29.56,West,270,2.3,2.3,52,0.00,CLR,,0.00,WeatherDisplay:10.37,2013-02-10 18:28:00,
2013-02-10 20:31:00,50.7,33.7,29.56,West,270,1.4,0.0,52,0.00,CLR,,0.00,WeatherDisplay:10.37,2013-02-10 18:31:00,
2013-02-10 20:32:00,50.7,33.7,29.56,West,270,1.1,1.1,52,0.00,CLR,,0.00,WeatherDisplay:10.37,2013-02-10 18:32:00,
2013-02-10 20:33:00,50.5,33.6,29.56,West,270,0.0,0.0,52,0.00,CLR,,0.00,WeatherDisplay:10.37,2013-02-10 18:33:00,
2013-02-10 20:36:00,50.5,33.6,29.56,West,270,0.0,0.0,52,0.00,CLR,,0.00,WeatherDisplay:10.37,2013-02-10 18:36:00,
2013-02-10 20:37:00,50.4,33.4,29.56,West,270,1.4,0.0,52,0.00,CLR,,0.00,WeatherDisplay:10.37,2013-02-10 18:37:00,
2013-02-10 20:38:00,50.4,33.4,29.56,West,270,1.1,0.0,52,0.00,CLR,,0.00,WeatherDisplay:10.37,2013-02-10 18:38:00,
2013-02-10 20:41:00,50.5,33.6,29.56,West,270,2.3,2.3,52,0.00,CLR,,0.00,WeatherDisplay:10.37,2013-02-10 18:41:00,
2013-02-10 20:42:00,50.5,33.6,29.56,WNW,292,2.6,2.6,52,0.00,CLR,,0.00,WeatherDisplay:10.37,2013-02-10 18:42:00,
2013-02-10 20:43:00,50.5,33.6,29.56,WNW,292,2.6,2.6,52,0.00,CLR,,0.00,WeatherDisplay:10.37,2013-02-10 18:43:00,
2013-02-10 20:46:00,50.5,33.6,29.56,WNW,292,2.3,2.3,52,0.00,CLR,,0.00,WeatherDisplay:10.37,2013-02-10 18:46:00,
2013-02-10 20:47:00,50.4,33.4,29.56,WNW,292,1.1,0.0,52,0.00,CLR,,0.00,WeatherDisplay:10.37,2013-02-10 18:47:00,
2013-02-10 20:48:00,50.4,33.4,29.56,WNW,292,1.6,1.6,52,0.00,CLR,,0.00,WeatherDisplay:10.37,2013-02-10 18:48:00,
2013-02-10 20:52:00,50.4,33.4,29.56,WNW,292,2.4,2.4,52,0.00,CLR,,0.00,WeatherDisplay:10.37,2013-02-10 18:52:00,
2013-02-10 20:53:00,50.2,33.2,29.56,WNW,292,2.3,2.3,52,0.00,CLR,,0.00,WeatherDisplay:10.37,2013-02-10 18:53:00,
2013-02-10 20:57:00,50.2,33.2,29.56,WNW,292,2.3,2.3,52,0.00,CLR,,0.00,WeatherDisplay:10.37,2013-02-10 18:57:00,
2013-02-10 20:58:00,50.2,33.2,29.56,WNW,292,2.3,2.3,52,0.00,CLR,,0.00,WeatherDisplay:10.37,2013-02-10 18:58:00,
2013-02-10 21:02:00,50.2,33.2,29.56,WNW,292,1.1,0.0,52,0.00,CLR,,0.00,WeatherDisplay:10.37,2013-02-10 19:02:00,
2013-02-10 21:03:00,50.2,33.2,29.56,WNW,292,1.1,1.1,52,0.00,CLR,,0.00,WeatherDisplay:10.37,2013-02-10 19:03:00,
2013-02-10 21:07:00,50.2,33.7,29.56,NNE,22,3.6,3.6,53,0.00,CLR,,0.00,WeatherDisplay:10.37,2013-02-10 19:07:00,
2013-02-10 21:08:00,50.2,33.7,29.56,NE,45,3.5,3.5,53,0.00,CLR,,0.00,WeatherDisplay:10.37,2013-02-10 19:08:00,
2013-02-10 21:12:00,50.0,34.5,29.56,NE,45,3.5,3.5,55,0.00,CLR,,0.00,WeatherDisplay:10.37,2013-02-10 19:12:00,
2013-02-10 21:13:00,50.0,34.5,29.56,ENE,68,2.4,2.4,55,0.00,CLR,,0.00,WeatherDisplay:10.37,2013-02-10 19:13:00,
2013-02-10 21:17:00,49.8,34.3,29.56,ENE,68,2.4,2.4,55,0.00,CLR,,0.00,WeatherDisplay:10.37,2013-02-10 19:17:00,
2013-02-10 21:18:00,49.8,34.3,29.56,ENE,68,2.3,2.3,55,0.00,CLR,,0.00,WeatherDisplay:10.37,2013-02-10 19:18:00,
2013-02-10 21:19:00,49.8,34.3,29.56,ENE,68,2.4,2.4,55,0.00,CLR,,0.00,WeatherDisplay:10.37,2013-02-10 19:19:00,
2013-02-10 21:22:00,49.6,34.1,29.56,ENE,68,0.0,0.0,55,0.00,CLR,,0.00,WeatherDisplay:10.37,2013-02-10 19:22:00,
2013-02-10 21:23:00,49.6,34.1,29.56,ENE,68,2.9,2.9,55,0.00,CLR,,0.00,WeatherDisplay:10.37,2013-02-10 19:23:00,
2013-02-10 21:24:00,49.6,34.1,29.56,ENE,68,2.3,2.3,55,0.00,CLR,,0.00,WeatherDisplay:10.37,2013-02-10 19:24:00,
2013-02-10 21:27:00,49.6,34.6,29.56,NE,45,2.3,2.3,56,0.00,CLR,,0.00,WeatherDisplay:10.37,2013-02-10 19:27:00,
2013-02-10 21:28:00,49.5,34.0,29.56,NE,45,2.3,2.3,55,0.00,CLR,,0.00,WeatherDisplay:10.37,2013-02-10 19:28:00,
2013-02-10 21:29:00,49.5,34.0,29.56,NE,45,2.3,2.3,55,0.00,CLR,,0.00,WeatherDisplay:10.37,2013-02-10 19:29:00,
2013-02-10 21:33:00,49.5,34.0,29.53,NE,45,0.0,0.0,55,0.00,CLR,,0.00,WeatherDisplay:10.37,2013-02-10 19:33:00,
2013-02-10 21:34:00,49.3,33.8,29.53,NE,45,1.6,0.0,55,0.00,CLR,,0.00,WeatherDisplay:10.37,2013-02-10 19:34:00,
2013-02-10 21:38:00,49.3,34.2,29.53,NE,45,2.3,2.3,56,0.00,CLR,,0.00,WeatherDisplay:10.37,2013-02-10 19:38:00,
2013-02-10 21:39:00,49.3,34.2,29.53,NE,45,2.3,2.3,56,0.00,CLR,,0.00,WeatherDisplay:10.37,2013-02-10 19:39:00,
2013-02-10 21:43:00,49.3,34.7,29.53,ENE,68,2.3,2.3,57,0.00,CLR,,0.00,WeatherDisplay:10.37,2013-02-10 19:43:00,
2013-02-10 21:44:00,49.3,34.7,29.53,ENE,68,2.4,2.4,57,0.00,CLR,,0.00,WeatherDisplay:10.37,2013-02-10 19:44:00,
2013-02-10 21:48:00,49.1,34.5,29.56,ENE,68,2.3,2.3,57,0.00,CLR,,0.00,WeatherDisplay:10.37,2013-02-10 19:48:00,
2013-02-10 21:49:00,49.1,34.5,29.56,ENE,68,1.4,1.4,57,0.00,CLR,,0.00,WeatherDisplay:10.37,2013-02-10 19:49:00,
2013-02-10 21:53:00,49.1,34.5,29.56,ENE,68,1.4,1.4,57,0.00,CLR,,0.00,WeatherDisplay:10.37,2013-02-10 19:53:00,
2013-02-10 21:54:00,49.1,34.5,29.56,ENE,68,1.1,1.1,57,0.00,CLR,,0.00,WeatherDisplay:10.37,2013-02-10 19:54:00,
2013-02-10 21:58:00,49.1,34.5,29.56,ENE,68,2.3,2.3,57,0.00,CLR,,0.00,WeatherDisplay:10.37,2013-02-10 19:58:00,
2013-02-10 21:59:00,49.1,34.5,29.56,ENE,68,1.1,1.1,57,0.00,CLR,,0.00,WeatherDisplay:10.37,2013-02-10 19:59:00,
2013-02-10 22:03:00,49.1,34.5,29.53,ENE,68,2.2,2.2,57,0.00,CLR,,0.00,WeatherDisplay:10.37,2013-02-10 20:03:00,
2013-02-10 22:04:00,49.1,34.5,29.53,ENE,68,3.1,3.1,57,0.00,CLR,,0.00,WeatherDisplay:10.37,2013-02-10 20:04:00,
2013-02-10 22:08:00,49.1,34.9,29.53,NNE,22,3.5,3.5,58,0.00,CLR,,0.00,WeatherDisplay:10.37,2013-02-10 20:08:00,
2013-02-10 22:09:00,49.1,34.9,29.53,NNE,22,2.3,2.3,58,0.00,CLR,,0.00,WeatherDisplay:10.37,2013-02-10 20:09:00,
2013-02-10 22:10:00,49.1,34.9,29.53,NE,45,3.1,3.1,58,0.00,CLR,,0.00,WeatherDisplay:10.37,2013-02-10 20:10:00,
2013-02-10 22:13:00,49.1,34.9,29.53,NE,45,2.4,2.4,58,0.00,CLR,,0.00,WeatherDisplay:10.37,2013-02-10 20:13:00,
2013-02-10 22:15:00,49.3,35.1,29.53,NE,45,2.3,2.4,58,0.00,CLR,,0.00,WeatherDisplay:10.37,2013-02-10 20:15:00,
2013-02-10 22:19:00,49.3,35.1,29.53,NE,45,3.5,3.5,58,0.00,CLR,,0.00,WeatherDisplay:10.37,2013-02-10 20:19:00,
2013-02-10 22:20:00,49.3,35.1,29.53,NE,45,3.5,0.0,58,0.00,CLR,,0.00,WeatherDisplay:10.37,2013-02-10 20:20:00,
2013-02-10 22:21:00,49.3,35.1,29.53,NE,45,1.1,2.0,58,0.00,CLR,,0.00,WeatherDisplay:10.37,2013-02-10 20:21:00,
2013-02-10 22:24:00,49.3,35.1,29.53,NE,45,2.3,2.3,58,0.00,CLR,,0.00,WeatherDisplay:10.37,2013-02-10 20:24:00,
2013-02-10 22:25:00,49.5,35.3,29.53,NE,45,0.0,0.9,58,0.00,CLR,,0.00,WeatherDisplay:10.37,2013-02-10 20:25:00,
2013-02-10 22:26:00,49.5,35.3,29.53,NE,45,0.0,0.0,58,0.00,CLR,,0.00,WeatherDisplay:10.37,2013-02-10 20:26:00,
2013-02-10 22:29:00,49.5,35.3,29.53,NE,45,0.0,0.0,58,0.00,CLR,,0.00,WeatherDisplay:10.37,2013-02-10 20:29:00,
2013-02-10 22:30:00,49.5,35.3,29.53,NE,45,0.0,0.0,58,0.00,CLR,,0.00,WeatherDisplay:10.37,2013-02-10 20:30:00,
2013-02-10 22:31:00,49.5,35.3,29.56,NE,45,0.0,0.0,58,0.00,CLR,,0.00,WeatherDisplay:10.37,2013-02-10 20:31:00,
2013-02-10 22:34:00,49.5,35.3,29.56,NE,45,0.0,0.0,58,0.00,CLR,,0.00,WeatherDisplay:10.37,2013-02-10 20:34:00,
2013-02-10 22:35:00,49.5,35.3,29.56,NE,45,0.0,0.0,58,0.00,CLR,,0.00,WeatherDisplay:10.37,2013-02-10 20:35:00,
2013-02-10 22:36:00,49.5,35.3,29.56,NE,45,0.0,0.0,58,0.00,CLR,,0.00,WeatherDisplay:10.37,2013-02-10 20:36:00,
2013-02-10 22:39:00,49.5,35.3,29.56,ENE,68,0.0,0.0,58,0.00,CLR,,0.00,WeatherDisplay:10.37,2013-02-10 20:39:00,
2013-02-10 22:40:00,49.5,35.3,29.56,ENE,68,0.0,0.0,58,0.00,CLR,,0.00,WeatherDisplay:10.37,2013-02-10 20:40:00,
2013-02-10 22:41:00,49.5,35.3,29.56,ENE,68,0.0,0.0,58,0.00,CLR,,0.00,WeatherDisplay:10.37,2013-02-10 20:41:00,
2013-02-10 22:44:00,49.5,34.8,29.56,ENE,68,0.0,0.0,57,0.00,CLR,,0.00,WeatherDisplay:10.37,2013-02-10 20:44:00,
2013-02-10 22:45:00,49.5,34.8,29.56,NE,45,0.0,0.0,57,0.00,CLR,,0.00,WeatherDisplay:10.37,2013-02-10 20:45:00,
2013-02-10 22:46:00,49.5,34.8,29.59,NE,45,0.0,0.0,57,0.00,CLR,,0.00,WeatherDisplay:10.37,2013-02-10 20:46:00,
2013-02-10 22:49:00,49.3,34.7,29.59,NE,45,0.0,0.0,57,0.00,CLR,,0.00,WeatherDisplay:10.37,2013-02-10 20:49:00,
2013-02-10 22:50:00,49.5,34.8,29.59,NE,45,0.0,0.0,57,0.00,CLR,,0.00,WeatherDisplay:10.37,2013-02-10 20:50:00,
2013-02-10 22:51:00,49.5,34.8,29.59,NE,45,0.0,0.0,57,0.00,CLR,,0.00,WeatherDisplay:10.37,2013-02-10 20:51:00,
2013-02-10 22:54:00,49.3,34.7,29.59,NE,45,1.1,0.0,57,0.00,CLR,,0.00,WeatherDisplay:10.37,2013-02-10 20:54:00,
2013-02-10 22:55:00,49.3,34.7,29.59,NE,45,2.3,2.3,57,0.00,CLR,,0.00,WeatherDisplay:10.37,2013-02-10 20:55:00,
2013-02-10 22:56:00,49.3,34.7,29.59,NE,45,2.3,2.3,57,0.00,CLR,,0.00,WeatherDisplay:10.37,2013-02-10 20:56:00,
2013-02-10 22:57:00,49.3,34.7,29.59,NE,45,2.3,2.3,57,0.00,CLR,,0.00,WeatherDisplay:10.37,2013-02-10 20:57:00,
2013-02-10 22:59:00,49.3,34.7,29.59,NE,45,1.1,0.0,57,0.00,CLR,,0.00,WeatherDisplay:10.37,2013-02-10 20:59:00,
2013-02-10 23:00:00,49.3,34.7,29.59,NE,45,1.1,0.0,57,0.00,CLR,,0.00,WeatherDisplay:10.37,2013-02-10 21:00:00,
2013-02-10 23:01:00,49.3,34.7,29.59,NE,45,1.1,0.0,57,0.00,CLR,,0.00,WeatherDisplay:10.37,2013-02-10 21:01:00,
2013-02-10 23:02:00,49.3,34.7,29.59,NE,45,1.1,0.0,57,0.00,CLR,,0.00,WeatherDisplay:10.37,2013-02-10 21:02:00,
2013-02-10 23:04:00,49.3,34.7,29.59,NE,45,1.4,1.4,57,0.00,CLR,,0.00,WeatherDisplay:10.37,2013-02-10 21:04:00,
2013-02-10 23:05:00,49.3,34.7,29.59,NE,45,1.1,1.1,57,0.00,CLR,,0.00,WeatherDisplay:10.37,2013-02-10 21:05:00,
2013-02-10 23:06:00,49.3,34.7,29.59,NE,45,1.1,1.1,57,0.00,CLR,,0.00,WeatherDisplay:10.37,2013-02-10 21:06:00,
2013-02-10 23:07:00,49.3,34.7,29.59,NE,45,1.4,1.4,57,0.00,CLR,,0.00,WeatherDisplay:10.37,2013-02-10 21:07:00,
2013-02-10 23:09:00,49.3,35.1,29.59,NE,45,1.1,0.0,58,0.00,CLR,,0.00,WeatherDisplay:10.37,2013-02-10 21:09:00,
2013-02-10 23:11:00,49.3,35.1,29.59,NE,45,0.0,0.0,58,0.00,CLR,,0.00,WeatherDisplay:10.37,2013-02-10 21:11:00,
2013-02-10 23:12:00,49.3,35.1,29.59,NE,45,0.9,0.0,58,0.00,CLR,,0.00,WeatherDisplay:10.37,2013-02-10 21:12:00,
2013-02-10 23:14:00,49.3,35.1,29.59,NE,45,1.1,0.0,58,0.00,CLR,,0.00,WeatherDisplay:10.37,2013-02-10 21:14:00,
2013-02-10 23:16:00,49.3,35.1,29.56,NE,45,2.3,2.3,58,0.00,CLR,,0.00,WeatherDisplay:10.37,2013-02-10 21:16:00,
2013-02-10 23:17:00,49.3,35.1,29.56,NE,45,2.3,2.3,58,0.00,CLR,,0.00,WeatherDisplay:10.37,2013-02-10 21:17:00,
2013-02-10 23:19:00,49.3,35.1,29.56,NE,45,2.3,2.3,58,0.00,CLR,,0.00,WeatherDisplay:10.37,2013-02-10 21:19:00,
2013-02-10 23:21:00,49.3,35.1,29.56,NE,45,1.1,1.1,58,0.00,CLR,,0.00,WeatherDisplay:10.37,2013-02-10 21:21:00,
2013-02-10 23:22:00,49.3,35.1,29.56,NE,45,1.1,0.0,58,0.00,CLR,,0.00,WeatherDisplay:10.37,2013-02-10 21:22:00,
2013-02-10 23:24:00,49.1,34.9,29.56,NE,45,1.1,0.0,58,0.00,CLR,,0.00,WeatherDisplay:10.37,2013-02-10 21:24:00,
2013-02-10 23:26:00,49.1,34.9,29.56,NE,45,2.3,2.3,58,0.00,CLR,,0.00,WeatherDisplay:10.37,2013-02-10 21:26:00,
2013-02-10 23:27:00,49.1,34.9,29.56,NE,45,1.1,1.1,58,0.00,CLR,,0.00,WeatherDisplay:10.37,2013-02-10 21:27:00,
2013-02-10 23:29:00,48.9,34.8,29.56,NE,45,1.1,0.0,58,0.00,CLR,,0.00,WeatherDisplay:10.37,2013-02-10 21:29:00,
2013-02-10 23:31:00,48.7,34.6,29.56,NE,45,1.1,0.0,58,0.00,CLR,,0.00,WeatherDisplay:10.37,2013-02-10 21:31:00,
2013-02-10 23:32:00,48.7,34.6,29.56,NE,45,0.0,0.0,58,0.00,CLR,,0.00,WeatherDisplay:10.37,2013-02-10 21:32:00,
2013-02-10 23:34:00,48.7,34.6,29.56,NE,45,1.1,1.4,58,0.00,CLR,,0.00,WeatherDisplay:10.37,2013-02-10 21:34:00,
2013-02-10 23:37:00,48.7,34.6,29.56,NE,45,1.4,1.4,58,0.00,CLR,,0.00,WeatherDisplay:10.37,2013-02-10 21:37:00,
2013-02-10 23:40:00,48.7,34.6,29.56,NE,45,2.3,2.3,58,0.00,CLR,,0.00,WeatherDisplay:10.37,2013-02-10 21:40:00,
2013-02-10 23:42:00,48.7,34.6,29.56,NE,45,0.0,0.0,58,0.00,CLR,,0.00,WeatherDisplay:10.37,2013-02-10 21:42:00,
2013-02-10 23:43:00,48.7,34.6,29.56,NE,45,2.0,0.0,58,0.00,CLR,,0.00,WeatherDisplay:10.37,2013-02-10 21:43:00,
2013-02-10 23:45:00,48.7,34.6,29.56,NE,45,2.9,2.9,58,0.00,CLR,,0.00,WeatherDisplay:10.37,2013-02-10 21:45:00,
2013-02-10 23:47:00,48.7,35.0,29.56,NE,45,2.3,2.3,59,0.00,CLR,,0.00,WeatherDisplay:10.37,2013-02-10 21:47:00,
2013-02-10 23:48:00,48.7,35.0,29.56,NE,45,2.3,2.3,59,0.00,CLR,,0.00,WeatherDisplay:10.37,2013-02-10 21:48:00,
2013-02-10 23:50:00,48.7,35.0,29.56,NE,45,1.4,1.4,59,0.00,CLR,,0.00,WeatherDisplay:10.37,2013-02-10 21:50:00,
2013-02-10 23:52:00,48.7,35.0,29.56,ENE,68,2.0,2.0,59,0.00,CLR,,0.00,WeatherDisplay:10.37,2013-02-10 21:52:00,
2013-02-10 23:53:00,48.7,35.0,29.56,ENE,68,2.4,2.4,59,0.00,CLR,,0.00,WeatherDisplay:10.37,2013-02-10 21:53:00,
2013-02-10 23:55:00,48.7,35.0,29.56,NE,45,2.6,2.6,59,0.00,CLR,,0.00,WeatherDisplay:10.37,2013-02-10 21:55:00,
2013-02-10 23:57:00,48.9,35.6,29.56,NE,45,0.0,0.0,60,0.00,CLR,,0.00,WeatherDisplay:10.37,2013-02-10 21:57:00,
2013-02-10 23:58:00,48.9,35.6,29.56,NE,45,0.0,0.0,60,0.00,CLR,,0.00,WeatherDisplay:10.37,2013-02-10 21:58:00,